Time,TemperatureF,DewpointF,PressureIn,WindDirection,WindDirectionDegrees,WindSpeedMPH,WindSpeedGustMPH,Humidity,HourlyPrecipIn,Conditions,Clouds,dailyrainin,SolarRadiationWatts/m^2,SoftwareType,DateUTC
2013-09-18 00:01:00,66.2,64.4,29.90,SE,138,5.0,5.0,94,0.00,,,0.00,0,Wunderground v.1.15,2013-09-18 05:01:00,
2013-09-18 00:03:00,66.2,64.4,29.90,SE,144,1.0,5.0,94,0.00,,,0.00,0,Wunderground v.1.15,2013-09-18 05:03:00,
2013-09-18 00:07:00,66.3,64.5,29.90,SE,132,1.0,5.0,94,0.00,,,0.00,0,Wunderground v.1.15,2013-09-18 05:07:00,
2013-09-18 00:11:00,66.3,64.5,29.90,SSE,167,2.0,6.0,94,0.00,,,0.00,0,Wunderground v.1.15,2013-09-18 05:11:00,
2013-09-18 00:14:00,66.4,64.6,29.90,SSE,159,5.0,9.0,94,0.00,,,0.00,0,Wunderground v.1.15,2013-09-18 05:14:00,
2013-09-18 00:15:00,66.4,64.6,29.90,SSE,159,3.0,9.0,94,0.00,,,0.00,0,Wunderground v.1.15,2013-09-18 05:15:00,
2013-09-18 00:19:00,66.5,64.7,29.90,SSE,166,5.0,9.0,94,0.00,,,0.00,0,Wunderground v.1.15,2013-09-18 05:19:00,
2013-09-18 00:22:00,66.5,64.7,29.90,SE,145,8.0,10.0,94,0.00,,,0.00,0,Wunderground v.1.15,2013-09-18 05:22:00,
2013-09-18 00:23:00,66.5,64.7,29.90,SSE,167,5.0,10.0,94,0.00,,,0.00,0,Wunderground v.1.15,2013-09-18 05:23:00,
2013-09-18 00:24:00,66.5,64.7,29.89,SSE,153,8.0,10.0,94,0.00,,,0.00,0,Wunderground v.1.15,2013-09-18 05:24:00,
2013-09-18 00:26:00,66.6,64.8,29.89,SE,139,5.0,10.0,94,0.00,,,0.00,0,Wunderground v.1.15,2013-09-18 05:26:00,
2013-09-18 00:27:00,66.6,64.8,29.89,SSE,162,2.0,10.0,94,0.00,,,0.00,0,Wunderground v.1.15,2013-09-18 05:27:00,
2013-09-18 00:32:00,66.6,64.8,29.89,SE,130,7.0,7.0,94,0.00,,,0.00,0,Wunderground v.1.15,2013-09-18 05:32:00,
2013-09-18 00:33:00,66.7,64.9,29.89,ESE,121,4.0,7.0,94,0.00,,,0.00,0,Wunderground v.1.15,2013-09-18 05:33:00,
2013-09-18 00:35:00,66.6,64.8,29.89,SSE,155,4.0,7.0,94,0.00,,,0.00,0,Wunderground v.1.15,2013-09-18 05:35:00,
2013-09-18 00:36:00,66.6,64.8,29.89,SE,133,4.0,7.0,94,0.00,,,0.00,0,Wunderground v.1.15,2013-09-18 05:36:00,
2013-09-18 00:41:00,66.7,64.9,29.89,South,173,4.0,4.0,94,0.00,,,0.00,0,Wunderground v.1.15,2013-09-18 05:41:00,
2013-09-18 00:42:00,66.7,64.9,29.89,SE,146,6.0,6.0,94,0.00,,,0.00,0,Wunderground v.1.15,2013-09-18 05:42:00,
2013-09-18 00:44:00,66.7,64.6,29.89,SSE,163,6.0,6.0,93,0.00,,,0.00,0,Wunderground v.1.15,2013-09-18 05:44:00,
2013-09-18 00:47:00,66.7,64.6,29.88,SE,143,5.0,6.0,93,0.00,,,0.00,0,Wunderground v.1.15,2013-09-18 05:47:00,
2013-09-18 00:51:00,66.6,64.5,29.88,SE,146,4.0,4.0,93,0.00,,,0.00,0,Wunderground v.1.15,2013-09-18 05:51:00,
2013-09-18 00:52:00,66.6,64.5,29.88,SE,131,6.0,6.0,93,0.00,,,0.00,0,Wunderground v.1.15,2013-09-18 05:52:00,
2013-09-18 00:54:00,66.5,64.4,29.88,SSE,157,5.0,6.0,93,0.00,,,0.00,0,Wunderground v.1.15,2013-09-18 05:54:00,
2013-09-18 00:57:00,66.3,64.2,29.88,SSE,161,2.0,6.0,93,0.00,,,0.00,0,Wunderground v.1.15,2013-09-18 05:57:00,
2013-09-18 01:00:00,66.2,64.1,29.88,SE,135,5.0,5.0,93,0.00,,,0.00,0,Wunderground v.1.15,2013-09-18 06:00:00,
2013-09-18 01:02:00,66.1,64.3,29.88,SE,146,4.0,5.0,94,0.00,,,0.00,0,Wunderground v.1.15,2013-09-18 06:02:00,
2013-09-18 01:05:00,66.0,64.2,29.87,SE,143,3.0,6.0,94,0.00,,,0.00,0,Wunderground v.1.15,2013-09-18 06:05:00,
2013-09-18 01:09:00,65.9,64.1,29.88,South,171,2.0,6.0,94,0.00,,,0.00,0,Wunderground v.1.15,2013-09-18 06:09:00,
2013-09-18 01:10:00,65.9,64.1,29.88,South,170,5.0,5.0,94,0.00,,,0.00,0,Wunderground v.1.15,2013-09-18 06:10:00,
2013-09-18 01:12:00,65.8,64.0,29.88,SSE,150,6.0,6.0,94,0.00,,,0.00,0,Wunderground v.1.15,2013-09-18 06:12:00,
2013-09-18 01:13:00,65.8,64.0,29.88,SSE,150,4.0,6.0,94,0.00,,,0.00,0,Wunderground v.1.15,2013-09-18 06:13:00,
2013-09-18 01:17:00,65.8,64.0,29.87,South,170,8.0,8.0,94,0.00,,,0.00,0,Wunderground v.1.15,2013-09-18 06:17:00,
2013-09-18 01:20:00,65.7,63.9,29.88,SE,146,4.0,4.0,94,0.00,,,0.00,0,Wunderground v.1.15,2013-09-18 06:20:00,
2013-09-18 01:23:00,65.6,63.8,29.88,SE,144,1.0,4.0,94,0.00,,,0.00,0,Wunderground v.1.15,2013-09-18 06:23:00,
2013-09-18 01:24:00,65.6,63.8,29.88,South,178,3.0,4.0,94,0.00,,,0.00,0,Wunderground v.1.15,2013-09-18 06:24:00,
2013-09-18 01:27:00,65.7,63.9,29.88,SSE,148,2.0,4.0,94,0.00,,,0.00,0,Wunderground v.1.15,2013-09-18 06:27:00,
2013-09-18 01:29:00,65.6,63.8,29.88,SSE,165,5.0,5.0,94,0.00,,,0.00,0,Wunderground v.1.15,2013-09-18 06:29:00,
2013-09-18 01:32:00,65.6,63.8,29.88,SSE,161,4.0,6.0,94,0.00,,,0.00,0,Wunderground v.1.15,2013-09-18 06:32:00,
2013-09-18 01:33:00,65.7,63.9,29.88,SSE,155,1.0,6.0,94,0.00,,,0.00,0,Wunderground v.1.15,2013-09-18 06:33:00,
2013-09-18 01:34:00,65.7,63.9,29.88,SSE,167,1.0,6.0,94,0.00,,,0.00,0,Wunderground v.1.15,2013-09-18 06:34:00,
2013-09-18 01:35:00,65.6,63.8,29.88,SSE,162,1.0,6.0,94,0.00,,,0.00,0,Wunderground v.1.15,2013-09-18 06:35:00,
2013-09-18 01:38:00,65.6,63.8,29.88,SSE,159,2.0,6.0,94,0.00,,,0.00,0,Wunderground v.1.15,2013-09-18 06:38:00,
2013-09-18 01:39:00,65.6,63.8,29.88,SSE,152,9.0,9.0,94,0.00,,,0.00,0,Wunderground v.1.15,2013-09-18 06:39:00,
2013-09-18 01:42:00,65.5,63.7,29.88,SE,140,2.0,7.0,94,0.00,,,0.00,0,Wunderground v.1.15,2013-09-18 06:42:00,
2013-09-18 01:43:00,65.6,63.8,29.88,SSE,162,2.0,7.0,94,0.00,,,0.00,0,Wunderground v.1.15,2013-09-18 06:43:00,
2013-09-18 01:45:00,65.5,63.7,29.87,ESE,123,2.0,7.0,94,0.00,,,0.00,0,Wunderground v.1.15,2013-09-18 06:45:00,
2013-09-18 01:47:00,65.5,63.7,29.87,SSE,158,2.0,7.0,94,0.00,,,0.00,0,Wunderground v.1.15,2013-09-18 06:47:00,
2013-09-18 01:49:00,65.5,64.0,29.88,South,175,5.0,7.0,95,0.00,,,0.00,0,Wunderground v.1.15,2013-09-18 06:49:00,
2013-09-18 01:52:00,65.4,63.6,29.88,SSE,168,5.0,5.0,94,0.00,,,0.00,0,Wunderground v.1.15,2013-09-18 06:52:00,
2013-09-18 01:56:00,65.4,63.9,29.88,SSE,151,3.0,5.0,95,0.00,,,0.00,0,Wunderground v.1.15,2013-09-18 06:56:00,
2013-09-18 01:57:00,65.4,63.9,29.87,SE,140,5.0,5.0,95,0.00,,,0.00,0,Wunderground v.1.15,2013-09-18 06:57:00,
2013-09-18 01:58:00,65.3,63.5,29.87,SE,136,2.0,5.0,94,0.00,,,0.00,0,Wunderground v.1.15,2013-09-18 06:58:00,
2013-09-18 02:02:00,65.3,63.5,29.87,SE,146,7.0,7.0,94,0.00,,,0.00,0,Wunderground v.1.15,2013-09-18 07:02:00,
2013-09-18 02:03:00,65.3,63.5,29.87,SSE,150,3.0,7.0,94,0.00,,,0.00,0,Wunderground v.1.15,2013-09-18 07:03:00,
2013-09-18 02:07:00,65.2,63.4,29.87,SSE,155,2.0,7.0,94,0.00,,,0.00,0,Wunderground v.1.15,2013-09-18 07:07:00,
2013-09-18 02:09:00,65.2,63.4,29.87,SSE,163,2.0,7.0,94,0.00,,,0.00,0,Wunderground v.1.15,2013-09-18 07:09:00,
2013-09-18 02:12:00,65.1,63.6,29.87,South,170,6.0,8.0,95,0.00,,,0.00,0,Wunderground v.1.15,2013-09-18 07:12:00,
2013-09-18 02:15:00,65.1,63.6,29.87,SE,137,3.0,8.0,95,0.00,,,0.00,0,Wunderground v.1.15,2013-09-18 07:15:00,
2013-09-18 02:17:00,65.1,63.6,29.87,SE,137,4.0,8.0,95,0.00,,,0.00,0,Wunderground v.1.15,2013-09-18 07:17:00,
2013-09-18 02:18:00,65.1,63.6,29.87,SSE,159,4.0,8.0,95,0.00,,,0.00,0,Wunderground v.1.15,2013-09-18 07:18:00,
2013-09-18 02:20:00,65.2,63.7,29.87,SSE,161,6.0,6.0,95,0.00,,,0.00,0,Wunderground v.1.15,2013-09-18 07:20:00,
2013-09-18 02:23:00,65.2,63.7,29.87,SSE,157,3.0,6.0,95,0.00,,,0.00,0,Wunderground v.1.15,2013-09-18 07:23:00,
2013-09-18 02:24:00,65.2,63.7,29.87,SSE,158,7.0,7.0,95,0.00,,,0.00,0,Wunderground v.1.15,2013-09-18 07:24:00,
2013-09-18 02:26:00,65.2,63.7,29.87,SE,125,5.0,7.0,95,0.00,,,0.00,0,Wunderground v.1.15,2013-09-18 07:26:00,
2013-09-18 02:28:00,65.2,63.7,29.86,SSE,165,3.0,7.0,95,0.00,,,0.00,0,Wunderground v.1.15,2013-09-18 07:28:00,
2013-09-18 02:31:00,65.2,63.7,29.86,South,171,2.0,6.0,95,0.00,,,0.00,0,Wunderground v.1.15,2013-09-18 07:31:00,
2013-09-18 02:32:00,65.2,63.7,29.86,SE,132,1.0,6.0,95,0.00,,,0.00,0,Wunderground v.1.15,2013-09-18 07:32:00,
2013-09-18 02:33:00,65.2,63.7,29.86,South,186,1.0,6.0,95,0.00,,,0.00,0,Wunderground v.1.15,2013-09-18 07:33:00,
2013-09-18 02:34:00,65.2,63.7,29.86,ESE,122,3.0,6.0,95,0.00,,,0.00,0,Wunderground v.1.15,2013-09-18 07:34:00,
2013-09-18 02:36:00,65.1,63.6,29.86,SSE,161,2.0,6.0,95,0.00,,,0.00,0,Wunderground v.1.15,2013-09-18 07:36:00,
2013-09-18 02:38:00,65.1,63.6,29.86,SE,146,1.0,6.0,95,0.00,,,0.00,0,Wunderground v.1.15,2013-09-18 07:38:00,
2013-09-18 02:41:00,65.0,63.5,29.85,South,174,3.0,6.0,95,0.00,,,0.00,0,Wunderground v.1.15,2013-09-18 07:41:00,
2013-09-18 02:42:00,65.0,63.5,29.85,South,175,3.0,6.0,95,0.00,,,0.00,0,Wunderground v.1.15,2013-09-18 07:42:00,
2013-09-18 02:47:00,65.0,63.5,29.86,SE,142,0.0,6.0,95,0.00,,,0.00,0,Wunderground v.1.15,2013-09-18 07:47:00,
2013-09-18 02:48:00,65.0,63.5,29.86,SE,137,1.0,6.0,95,0.00,,,0.00,0,Wunderground v.1.15,2013-09-18 07:48:00,
2013-09-18 02:50:00,64.9,63.4,29.86,SE,145,5.0,5.0,95,0.00,,,0.00,0,Wunderground v.1.15,2013-09-18 07:50:00,
2013-09-18 02:52:00,64.9,63.4,29.86,South,178,0.0,5.0,95,0.00,,,0.00,0,Wunderground v.1.15,2013-09-18 07:52:00,
2013-09-18 02:53:00,64.9,63.4,29.86,SSE,156,0.0,5.0,95,0.00,,,0.00,0,Wunderground v.1.15,2013-09-18 07:53:00,
2013-09-18 02:55:00,64.9,63.4,29.86,South,180,1.0,5.0,95,0.00,,,0.00,0,Wunderground v.1.15,2013-09-18 07:55:00,
2013-09-18 02:56:00,64.9,63.4,29.86,SE,144,1.0,5.0,95,0.00,,,0.00,0,Wunderground v.1.15,2013-09-18 07:56:00,
2013-09-18 02:58:00,64.9,63.4,29.86,South,176,2.0,5.0,95,0.00,,,0.00,0,Wunderground v.1.15,2013-09-18 07:58:00,
2013-09-18 03:00:00,64.9,63.4,29.86,SSE,153,0.0,1.0,95,0.00,,,0.00,0,Wunderground v.1.15,2013-09-18 08:00:00,
2013-09-18 03:03:00,64.9,63.4,29.85,SSE,150,1.0,2.0,95,0.00,,,0.00,0,Wunderground v.1.15,2013-09-18 08:03:00,
2013-09-18 03:04:00,64.9,63.4,29.85,ESE,121,3.0,3.0,95,0.00,,,0.00,0,Wunderground v.1.15,2013-09-18 08:04:00,
2013-09-18 03:05:00,64.9,63.4,29.85,SE,146,0.0,3.0,95,0.00,,,0.00,0,Wunderground v.1.15,2013-09-18 08:05:00,
2013-09-18 03:08:00,64.8,63.3,29.84,SSE,149,0.0,3.0,95,0.00,,,0.00,0,Wunderground v.1.15,2013-09-18 08:08:00,
2013-09-18 03:09:00,64.8,63.3,29.84,South,169,2.0,3.0,95,0.00,,,0.00,0,Wunderground v.1.15,2013-09-18 08:09:00,
2013-09-18 03:11:00,64.8,63.3,29.84,SSE,151,0.0,3.0,95,0.00,,,0.00,0,Wunderground v.1.15,2013-09-18 08:11:00,
2013-09-18 03:12:00,64.7,63.2,29.84,SSE,156,1.0,3.0,95,0.00,,,0.00,0,Wunderground v.1.15,2013-09-18 08:12:00,
2013-09-18 03:14:00,64.7,63.2,29.84,SSE,165,4.0,4.0,95,0.00,,,0.00,0,Wunderground v.1.15,2013-09-18 08:14:00,
2013-09-18 03:17:00,64.7,63.2,29.84,SSE,153,2.0,5.0,95,0.00,,,0.00,0,Wunderground v.1.15,2013-09-18 08:17:00,
2013-09-18 03:19:00,64.7,63.2,29.84,SE,142,3.0,5.0,95,0.00,,,0.00,0,Wunderground v.1.15,2013-09-18 08:19:00,
2013-09-18 03:21:00,64.7,63.2,29.84,SSE,155,3.0,3.0,95,0.00,,,0.00,0,Wunderground v.1.15,2013-09-18 08:21:00,
2013-09-18 03:23:00,64.7,63.2,29.84,South,172,4.0,6.0,95,0.00,,,0.00,0,Wunderground v.1.15,2013-09-18 08:23:00,
2013-09-18 03:24:00,64.7,63.2,29.85,SSE,156,2.0,6.0,95,0.00,,,0.00,0,Wunderground v.1.15,2013-09-18 08:24:00,
2013-09-18 03:26:00,64.8,63.3,29.84,SSE,152,1.0,6.0,95,0.00,,,0.00,0,Wunderground v.1.15,2013-09-18 08:26:00,
2013-09-18 03:29:00,64.8,63.3,29.84,SSE,155,3.0,6.0,95,0.00,,,0.00,0,Wunderground v.1.15,2013-09-18 08:29:00,
2013-09-18 03:30:00,64.8,63.3,29.84,South,169,0.0,6.0,95,0.00,,,0.00,0,Wunderground v.1.15,2013-09-18 08:30:00,
2013-09-18 03:32:00,64.8,63.3,29.84,SSE,150,2.0,4.0,95,0.00,,,0.00,0,Wunderground v.1.15,2013-09-18 08:32:00,
2013-09-18 03:35:00,64.8,63.3,29.84,SSE,165,1.0,4.0,95,0.00,,,0.00,0,Wunderground v.1.15,2013-09-18 08:35:00,
2013-09-18 03:36:00,64.8,63.3,29.84,SSE,160,2.0,4.0,95,0.00,,,0.00,0,Wunderground v.1.15,2013-09-18 08:36:00,
2013-09-18 03:38:00,64.8,63.3,29.84,SE,140,2.0,7.0,95,0.00,,,0.00,0,Wunderground v.1.15,2013-09-18 08:38:00,
2013-09-18 03:40:00,64.8,63.3,29.84,SE,144,6.0,7.0,95,0.00,,,0.00,0,Wunderground v.1.15,2013-09-18 08:40:00,
2013-09-18 03:41:00,64.8,63.3,29.84,SE,140,4.0,5.0,95,0.00,,,0.00,0,Wunderground v.1.15,2013-09-18 08:41:00,
2013-09-18 03:44:00,64.8,63.3,29.84,SSE,154,2.0,8.0,95,0.00,,,0.00,0,Wunderground v.1.15,2013-09-18 08:44:00,
2013-09-18 03:45:00,64.8,63.3,29.84,SSE,157,1.0,8.0,95,0.00,,,0.00,0,Wunderground v.1.15,2013-09-18 08:45:00,
2013-09-18 03:46:00,64.8,63.3,29.84,SSE,160,0.0,8.0,95,0.00,,,0.00,0,Wunderground v.1.15,2013-09-18 08:46:00,
2013-09-18 03:50:00,64.9,63.4,29.83,SSE,156,5.0,8.0,95,0.00,,,0.00,0,Wunderground v.1.15,2013-09-18 08:50:00,
2013-09-18 03:51:00,64.9,63.4,29.83,SSE,166,2.0,8.0,95,0.00,,,0.00,0,Wunderground v.1.15,2013-09-18 08:51:00,
2013-09-18 03:54:00,64.9,63.4,29.83,SSE,163,0.0,8.0,95,0.00,,,0.00,0,Wunderground v.1.15,2013-09-18 08:54:00,
2013-09-18 03:55:00,64.9,63.4,29.83,SSE,165,2.0,8.0,95,0.00,,,0.00,0,Wunderground v.1.15,2013-09-18 08:55:00,
2013-09-18 03:56:00,64.9,63.4,29.83,SSE,157,4.0,8.0,95,0.00,,,0.00,0,Wunderground v.1.15,2013-09-18 08:56:00,
2013-09-18 04:00:00,64.9,63.7,29.85,SSW,194,2.0,3.0,96,0.00,,,0.00,0,Wunderground v.1.15,2013-09-18 09:00:00,
2013-09-18 04:02:00,64.9,63.7,29.84,SSE,168,1.0,3.0,96,0.00,,,0.00,0,Wunderground v.1.15,2013-09-18 09:02:00,
2013-09-18 04:05:00,65.0,63.8,29.83,South,185,1.0,6.0,96,0.00,,,0.00,0,Wunderground v.1.15,2013-09-18 09:05:00,
2013-09-18 04:06:00,64.9,63.7,29.83,South,187,2.0,6.0,96,0.00,,,0.00,0,Wunderground v.1.15,2013-09-18 09:06:00,
2013-09-18 04:07:00,65.0,63.8,29.83,South,184,5.0,6.0,96,0.00,,,0.00,0,Wunderground v.1.15,2013-09-18 09:07:00,
2013-09-18 04:11:00,65.0,63.8,29.84,South,188,0.0,6.0,96,0.00,,,0.00,0,Wunderground v.1.15,2013-09-18 09:11:00,
2013-09-18 04:12:00,65.0,63.8,29.84,South,189,0.0,6.0,96,0.00,,,0.00,0,Wunderground v.1.15,2013-09-18 09:12:00,
2013-09-18 04:13:00,65.0,63.8,29.84,SSW,205,1.0,6.0,96,0.00,,,0.00,0,Wunderground v.1.15,2013-09-18 09:13:00,
2013-09-18 04:18:00,65.0,63.8,29.83,South,170,1.0,6.0,96,0.00,,,0.00,0,Wunderground v.1.15,2013-09-18 09:18:00,
2013-09-18 04:19:00,65.0,63.8,29.83,South,172,1.0,6.0,96,0.00,,,0.00,0,Wunderground v.1.15,2013-09-18 09:19:00,
2013-09-18 04:24:00,65.1,63.9,29.83,SSW,194,1.0,2.0,96,0.00,,,0.00,0,Wunderground v.1.15,2013-09-18 09:24:00,
2013-09-18 04:25:00,65.1,63.9,29.83,South,182,0.0,2.0,96,0.00,,,0.00,0,Wunderground v.1.15,2013-09-18 09:25:00,
2013-09-18 04:27:00,65.1,63.9,29.83,SSW,200,0.0,3.0,96,0.00,,,0.00,0,Wunderground v.1.15,2013-09-18 09:27:00,
2013-09-18 04:29:00,65.1,63.9,29.84,South,171,3.0,4.0,96,0.00,,,0.01,0,Wunderground v.1.15,2013-09-18 09:29:00,
2013-09-18 04:30:00,65.2,64.0,29.83,South,186,1.0,2.0,96,0.00,,,0.01,0,Wunderground v.1.15,2013-09-18 09:30:00,
2013-09-18 04:33:00,65.1,63.9,29.83,SSW,205,2.0,4.0,96,0.00,,,0.01,0,Wunderground v.1.15,2013-09-18 09:33:00,
2013-09-18 04:35:00,65.1,63.9,29.83,SSW,196,0.0,4.0,96,0.00,,,0.01,0,Wunderground v.1.15,2013-09-18 09:35:00,
2013-09-18 04:36:00,65.1,63.9,29.83,SSW,202,0.0,4.0,96,0.00,,,0.01,0,Wunderground v.1.15,2013-09-18 09:36:00,
2013-09-18 04:38:00,65.1,63.9,29.83,SSE,165,1.0,4.0,96,0.00,,,0.01,0,Wunderground v.1.15,2013-09-18 09:38:00,
2013-09-18 04:40:00,65.1,63.9,29.82,South,182,1.0,2.0,96,0.00,,,0.01,0,Wunderground v.1.15,2013-09-18 09:40:00,
2013-09-18 04:41:00,65.1,63.9,29.82,South,182,0.0,2.0,96,0.00,,,0.01,0,Wunderground v.1.15,2013-09-18 09:41:00,
2013-09-18 04:44:00,65.1,63.9,29.83,SSW,210,2.0,3.0,96,0.04,,,0.02,0,Wunderground v.1.15,2013-09-18 09:44:00,
2013-09-18 04:46:00,65.1,63.9,29.83,South,184,0.0,3.0,96,0.04,,,0.02,0,Wunderground v.1.15,2013-09-18 09:46:00,
2013-09-18 04:49:00,65.1,63.9,29.83,SSW,199,1.0,3.0,96,0.04,,,0.02,0,Wunderground v.1.15,2013-09-18 09:49:00,
2013-09-18 04:52:00,65.1,63.9,29.82,SSW,199,0.0,1.0,96,0.04,,,0.02,0,Wunderground v.1.15,2013-09-18 09:52:00,
2013-09-18 04:56:00,65.0,63.8,29.82,SSW,199,1.0,1.0,96,0.04,,,0.02,0,Wunderground v.1.15,2013-09-18 09:56:00,
2013-09-18 04:57:00,65.0,63.8,29.82,South,190,0.0,1.0,96,0.04,,,0.02,0,Wunderground v.1.15,2013-09-18 09:57:00,
2013-09-18 04:58:00,65.0,63.8,29.82,South,190,0.0,1.0,96,0.04,,,0.02,0,Wunderground v.1.15,2013-09-18 09:58:00,
2013-09-18 05:01:00,65.0,63.8,29.82,South,187,0.0,0.0,96,0.00,,,0.02,0,Wunderground v.1.15,2013-09-18 10:01:00,
2013-09-18 05:03:00,65.0,63.8,29.82,South,187,0.0,0.0,96,0.00,,,0.02,0,Wunderground v.1.15,2013-09-18 10:03:00,
2013-09-18 05:05:00,65.0,63.8,29.82,South,187,0.0,0.0,96,0.00,,,0.02,0,Wunderground v.1.15,2013-09-18 10:05:00,
2013-09-18 05:06:00,65.0,63.8,29.82,South,187,0.0,0.0,96,0.00,,,0.02,0,Wunderground v.1.15,2013-09-18 10:06:00,
2013-09-18 05:10:00,64.9,63.7,29.83,South,187,0.0,0.0,96,0.00,,,0.02,0,Wunderground v.1.15,2013-09-18 10:10:00,
2013-09-18 05:12:00,65.0,64.1,29.83,South,187,0.0,0.0,97,0.00,,,0.02,0,Wunderground v.1.15,2013-09-18 10:12:00,
2013-09-18 05:16:00,65.0,64.1,29.83,South,187,0.0,0.0,97,0.00,,,0.02,0,Wunderground v.1.15,2013-09-18 10:16:00,
2013-09-18 05:17:00,65.0,64.1,29.83,South,187,0.0,0.0,97,0.00,,,0.02,0,Wunderground v.1.15,2013-09-18 10:17:00,
2013-09-18 05:21:00,65.0,64.1,29.83,South,187,0.0,0.0,97,0.00,,,0.02,0,Wunderground v.1.15,2013-09-18 10:21:00,
2013-09-18 05:23:00,64.9,64.0,29.82,South,187,0.0,0.0,97,0.00,,,0.02,0,Wunderground v.1.15,2013-09-18 10:23:00,
2013-09-18 05:24:00,65.0,64.1,29.82,South,187,0.0,0.0,97,0.00,,,0.02,0,Wunderground v.1.15,2013-09-18 10:24:00,
2013-09-18 05:26:00,64.9,64.0,29.82,South,187,0.0,0.0,97,0.00,,,0.02,0,Wunderground v.1.15,2013-09-18 10:26:00,
2013-09-18 05:28:00,64.9,64.0,29.82,South,187,0.0,0.0,97,0.00,,,0.02,0,Wunderground v.1.15,2013-09-18 10:28:00,
2013-09-18 05:30:00,64.9,64.0,29.82,South,187,0.0,0.0,97,0.00,,,0.02,0,Wunderground v.1.15,2013-09-18 10:30:00,
2013-09-18 05:32:00,64.8,63.9,29.82,South,187,0.0,0.0,97,0.00,,,0.02,0,Wunderground v.1.15,2013-09-18 10:32:00,
2013-09-18 05:35:00,64.8,63.9,29.81,SE,135,0.0,0.0,97,0.00,,,0.02,0,Wunderground v.1.15,2013-09-18 10:35:00,
2013-09-18 05:37:00,64.9,64.0,29.81,SE,132,0.0,0.0,97,0.00,,,0.02,0,Wunderground v.1.15,2013-09-18 10:37:00,
2013-09-18 05:40:00,64.9,64.0,29.81,ESE,122,0.0,0.0,97,0.00,,,0.02,0,Wunderground v.1.15,2013-09-18 10:40:00,
2013-09-18 05:42:00,64.9,64.0,29.81,ESE,115,0.0,0.0,97,0.00,,,0.02,0,Wunderground v.1.15,2013-09-18 10:42:00,
2013-09-18 05:46:00,64.9,64.0,29.81,ESE,114,0.0,0.0,97,0.00,,,0.02,0,Wunderground v.1.15,2013-09-18 10:46:00,
2013-09-18 05:48:00,64.9,64.0,29.81,ESE,114,0.0,0.0,97,0.00,,,0.02,0,Wunderground v.1.15,2013-09-18 10:48:00,
2013-09-18 05:50:00,64.9,64.0,29.81,ESE,114,0.0,0.0,97,0.00,,,0.02,0,Wunderground v.1.15,2013-09-18 10:50:00,
2013-09-18 05:51:00,64.9,64.0,29.81,ESE,114,0.0,0.0,97,0.00,,,0.02,0,Wunderground v.1.15,2013-09-18 10:51:00,
2013-09-18 05:54:00,65.0,64.1,29.81,SE,128,2.0,2.0,97,0.00,,,0.02,0,Wunderground v.1.15,2013-09-18 10:54:00,
2013-09-18 05:57:00,65.0,64.1,29.81,ESE,119,4.0,4.0,97,0.00,,,0.02,0,Wunderground v.1.15,2013-09-18 10:57:00,
2013-09-18 05:58:00,65.0,64.1,29.81,SE,129,2.0,4.0,97,0.00,,,0.02,0,Wunderground v.1.15,2013-09-18 10:58:00,
2013-09-18 06:00:00,65.0,64.1,29.81,SE,142,0.0,1.0,97,0.00,,,0.02,0,Wunderground v.1.15,2013-09-18 11:00:00,
2013-09-18 06:04:00,65.0,64.1,29.80,ESE,109,4.0,7.0,97,0.00,,,0.02,0,Wunderground v.1.15,2013-09-18 11:04:00,
2013-09-18 06:05:00,65.0,64.1,29.80,SE,132,2.0,7.0,97,0.00,,,0.02,0,Wunderground v.1.15,2013-09-18 11:05:00,
2013-09-18 06:09:00,65.1,64.2,29.80,SE,142,2.0,7.0,97,0.00,,,0.02,0,Wunderground v.1.15,2013-09-18 11:09:00,
2013-09-18 06:10:00,65.1,64.2,29.80,SE,134,0.0,5.0,97,0.00,,,0.02,0,Wunderground v.1.15,2013-09-18 11:10:00,
2013-09-18 06:15:00,65.3,64.4,29.80,SE,124,4.0,9.0,97,0.00,,,0.02,0,Wunderground v.1.15,2013-09-18 11:15:00,
2013-09-18 06:16:00,65.3,64.4,29.80,SE,144,4.0,9.0,97,0.00,,,0.02,0,Wunderground v.1.15,2013-09-18 11:16:00,
2013-09-18 06:18:00,65.4,64.5,29.80,SE,128,4.0,9.0,97,0.00,,,0.02,0,Wunderground v.1.15,2013-09-18 11:18:00,
2013-09-18 06:20:00,65.5,64.6,29.80,ESE,119,3.0,5.0,97,0.00,,,0.02,0,Wunderground v.1.15,2013-09-18 11:20:00,
2013-09-18 06:21:00,65.5,64.6,29.80,SE,139,6.0,6.0,97,0.00,,,0.02,0,Wunderground v.1.15,2013-09-18 11:21:00,
2013-09-18 06:23:00,65.5,64.6,29.80,ESE,120,1.0,6.0,97,0.00,,,0.02,0,Wunderground v.1.15,2013-09-18 11:23:00,
2013-09-18 06:26:00,65.6,64.7,29.79,SE,134,2.0,6.0,97,0.00,,,0.02,0,Wunderground v.1.15,2013-09-18 11:26:00,
2013-09-18 06:28:00,65.6,64.7,29.79,SSE,148,6.0,8.0,97,0.00,,,0.02,0,Wunderground v.1.15,2013-09-18 11:28:00,
2013-09-18 06:31:00,65.7,64.8,29.79,ESE,121,4.0,6.0,97,0.00,,,0.02,0,Wunderground v.1.15,2013-09-18 11:31:00,
2013-09-18 06:32:00,65.7,64.8,29.79,SE,140,7.0,7.0,97,0.00,,,0.02,0,Wunderground v.1.15,2013-09-18 11:32:00,
2013-09-18 06:34:00,65.7,64.8,29.79,SSE,160,5.0,7.0,97,0.00,,,0.02,0,Wunderground v.1.15,2013-09-18 11:34:00,
2013-09-18 06:36:00,65.7,64.8,29.79,SSE,147,5.0,7.0,97,0.00,,,0.02,0,Wunderground v.1.15,2013-09-18 11:36:00,
2013-09-18 06:37:00,65.8,64.9,29.79,SSE,148,5.0,7.0,97,0.00,,,0.02,0,Wunderground v.1.15,2013-09-18 11:37:00,
2013-09-18 06:39:00,65.8,64.9,29.79,SSE,147,5.0,7.0,97,0.00,,,0.02,0,Wunderground v.1.15,2013-09-18 11:39:00,
2013-09-18 06:42:00,65.8,64.9,29.79,SSE,165,7.0,7.0,97,0.00,,,0.02,0,Wunderground v.1.15,2013-09-18 11:42:00,
2013-09-18 06:45:00,65.9,65.0,29.79,SE,134,6.0,8.0,97,0.00,,,0.02,0,Wunderground v.1.15,2013-09-18 11:45:00,
2013-09-18 06:47:00,65.8,64.9,29.79,SE,137,4.0,8.0,97,0.00,,,0.02,0,Wunderground v.1.15,2013-09-18 11:47:00,
2013-09-18 06:48:00,65.8,64.9,29.79,SE,138,3.0,8.0,97,0.00,,,0.02,0,Wunderground v.1.15,2013-09-18 11:48:00,
2013-09-18 06:52:00,65.8,64.9,29.80,SSE,154,5.0,5.0,97,0.00,,,0.02,0,Wunderground v.1.15,2013-09-18 11:52:00,
2013-09-18 06:53:00,65.8,64.9,29.80,ESE,115,5.0,5.0,97,0.00,,,0.02,0,Wunderground v.1.15,2013-09-18 11:53:00,
2013-09-18 06:57:00,65.8,64.9,29.80,SE,142,5.0,5.0,97,0.00,,,0.02,0,Wunderground v.1.15,2013-09-18 11:57:00,
2013-09-18 06:58:00,65.8,64.9,29.80,SE,145,0.0,5.0,97,0.00,,,0.02,0,Wunderground v.1.15,2013-09-18 11:58:00,
2013-09-18 07:03:00,65.9,65.0,29.80,SE,137,4.0,8.0,97,0.00,,,0.02,0,Wunderground v.1.15,2013-09-18 12:03:00,
2013-09-18 07:04:00,65.8,64.9,29.80,SE,127,0.0,8.0,97,0.00,,,0.02,0,Wunderground v.1.15,2013-09-18 12:04:00,
2013-09-18 07:08:00,65.9,65.0,29.80,SE,136,2.0,8.0,97,0.00,,,0.02,0,Wunderground v.1.15,2013-09-18 12:08:00,
2013-09-18 07:09:00,65.9,65.0,29.80,SE,127,0.0,8.0,97,0.00,,,0.02,0,Wunderground v.1.15,2013-09-18 12:09:00,
2013-09-18 07:14:00,65.9,65.0,29.80,SE,128,3.0,6.0,97,0.00,,,0.02,0,Wunderground v.1.15,2013-09-18 12:14:00,
2013-09-18 07:20:00,66.0,65.1,29.80,SE,134,2.0,6.0,97,0.00,,,0.02,5,Wunderground v.1.15,2013-09-18 12:20:00,
2013-09-18 07:21:00,66.0,65.1,29.80,SE,143,1.0,2.0,97,0.00,,,0.02,5,Wunderground v.1.15,2013-09-18 12:21:00,
2013-09-18 07:22:00,66.0,65.1,29.80,SE,144,0.0,2.0,97,0.00,,,0.02,5,Wunderground v.1.15,2013-09-18 12:22:00,
2013-09-18 07:25:00,66.0,65.1,29.80,SE,142,0.0,2.0,97,0.00,,,0.02,7,Wunderground v.1.15,2013-09-18 12:25:00,
2013-09-18 07:26:00,66.0,65.1,29.80,ESE,121,1.0,2.0,97,0.00,,,0.02,7,Wunderground v.1.15,2013-09-18 12:26:00,
2013-09-18 07:27:00,66.0,65.1,29.80,SSE,158,1.0,5.0,97,0.00,,,0.02,7,Wunderground v.1.15,2013-09-18 12:27:00,
2013-09-18 07:30:00,66.1,65.2,29.81,SE,143,0.0,3.0,97,0.00,,,0.02,7,Wunderground v.1.15,2013-09-18 12:30:00,
2013-09-18 07:33:00,66.1,65.2,29.81,SE,146,2.0,6.0,97,0.00,,,0.02,7,Wunderground v.1.15,2013-09-18 12:33:00,
2013-09-18 07:35:00,66.1,65.2,29.81,SSE,147,5.0,6.0,97,0.00,,,0.02,9,Wunderground v.1.15,2013-09-18 12:35:00,
2013-09-18 07:37:00,66.1,65.2,29.81,SE,144,0.0,6.0,97,0.00,,,0.02,9,Wunderground v.1.15,2013-09-18 12:37:00,
2013-09-18 07:38:00,66.1,65.2,29.81,SE,145,0.0,6.0,97,0.00,,,0.02,9,Wunderground v.1.15,2013-09-18 12:38:00,
2013-09-18 07:40:00,66.1,65.2,29.81,SE,128,4.0,4.0,97,0.00,,,0.02,9,Wunderground v.1.15,2013-09-18 12:40:00,
2013-09-18 07:43:00,66.2,65.3,29.81,SSE,153,5.0,5.0,97,0.00,,,0.02,11,Wunderground v.1.15,2013-09-18 12:43:00,
2013-09-18 07:44:00,66.2,65.3,29.81,SE,143,2.0,5.0,97,0.00,,,0.02,11,Wunderground v.1.15,2013-09-18 12:44:00,
2013-09-18 07:46:00,66.3,65.4,29.81,ESE,119,2.0,5.0,97,0.00,,,0.02,14,Wunderground v.1.15,2013-09-18 12:46:00,
2013-09-18 07:49:00,66.3,65.4,29.81,SE,140,4.0,5.0,97,0.00,,,0.02,23,Wunderground v.1.15,2013-09-18 12:49:00,
2013-09-18 07:50:00,66.4,65.5,29.81,SE,144,4.0,5.0,97,0.00,,,0.02,23,Wunderground v.1.15,2013-09-18 12:50:00,
2013-09-18 07:52:00,66.4,65.5,29.81,SSE,165,4.0,4.0,97,0.00,,,0.02,23,Wunderground v.1.15,2013-09-18 12:52:00,
2013-09-18 07:54:00,66.5,65.6,29.81,SSE,162,2.0,5.0,97,0.00,,,0.02,46,Wunderground v.1.15,2013-09-18 12:54:00,
2013-09-18 07:55:00,66.5,65.6,29.81,SSE,159,1.0,5.0,97,0.00,,,0.02,46,Wunderground v.1.15,2013-09-18 12:55:00,
2013-09-18 07:57:00,66.5,65.6,29.81,SSE,148,2.0,5.0,97,0.00,,,0.02,39,Wunderground v.1.15,2013-09-18 12:57:00,
2013-09-18 07:59:00,66.6,65.7,29.81,SSE,147,1.0,5.0,97,0.00,,,0.02,44,Wunderground v.1.15,2013-09-18 12:59:00,
2013-09-18 08:00:00,66.6,65.7,29.81,SSE,151,3.0,3.0,97,0.00,,,0.02,44,Wunderground v.1.15,2013-09-18 13:00:00,
2013-09-18 08:02:00,66.7,65.8,29.81,SSE,156,0.0,5.0,97,0.00,,,0.02,84,Wunderground v.1.15,2013-09-18 13:02:00,
2013-09-18 08:05:00,66.8,65.9,29.81,SSE,157,2.0,5.0,97,0.00,,,0.02,60,Wunderground v.1.15,2013-09-18 13:05:00,
2013-09-18 08:06:00,66.8,65.9,29.81,SE,140,2.0,5.0,97,0.00,,,0.02,77,Wunderground v.1.15,2013-09-18 13:06:00,
2013-09-18 08:07:00,66.8,65.9,29.81,SSE,155,4.0,7.0,97,0.00,,,0.02,91,Wunderground v.1.15,2013-09-18 13:07:00,
2013-09-18 08:11:00,66.9,66.0,29.81,SSE,156,4.0,5.0,97,0.00,,,0.02,76,Wunderground v.1.15,2013-09-18 13:11:00,
2013-09-18 08:12:00,67.0,66.1,29.80,SSE,159,0.0,5.0,97,0.00,,,0.02,86,Wunderground v.1.15,2013-09-18 13:12:00,
2013-09-18 08:13:00,67.0,66.1,29.80,South,191,0.0,5.0,97,0.00,,,0.02,86,Wunderground v.1.15,2013-09-18 13:13:00,
2013-09-18 08:16:00,67.1,66.2,29.80,SSE,151,4.0,8.0,97,0.00,,,0.02,109,Wunderground v.1.15,2013-09-18 13:16:00,
2013-09-18 08:18:00,67.1,66.2,29.80,SSE,163,0.0,8.0,97,0.00,,,0.02,114,Wunderground v.1.15,2013-09-18 13:18:00,
2013-09-18 08:20:00,67.2,66.3,29.80,ESE,115,7.0,7.0,97,0.00,,,0.02,135,Wunderground v.1.15,2013-09-18 13:20:00,
2013-09-18 08:22:00,67.4,66.5,29.80,South,184,2.0,7.0,97,0.00,,,0.02,153,Wunderground v.1.15,2013-09-18 13:22:00,
2013-09-18 08:23:00,67.5,66.6,29.80,SSE,162,3.0,7.0,97,0.00,,,0.02,178,Wunderground v.1.15,2013-09-18 13:23:00,
2013-09-18 08:25:00,67.5,66.6,29.80,SSE,159,2.0,7.0,97,0.00,,,0.02,162,Wunderground v.1.15,2013-09-18 13:25:00,
2013-09-18 08:27:00,67.6,66.7,29.80,SSW,193,1.0,7.0,97,0.00,,,0.02,97,Wunderground v.1.15,2013-09-18 13:27:00,
2013-09-18 08:28:00,67.6,66.7,29.80,SSE,149,2.0,7.0,97,0.00,,,0.02,172,Wunderground v.1.15,2013-09-18 13:28:00,
2013-09-18 08:30:00,67.7,66.8,29.80,South,173,7.0,7.0,97,0.00,,,0.02,137,Wunderground v.1.15,2013-09-18 13:30:00,
2013-09-18 08:32:00,67.7,66.8,29.80,SE,146,8.0,8.0,97,0.00,,,0.02,113,Wunderground v.1.15,2013-09-18 13:32:00,
2013-09-18 08:33:00,67.8,66.6,29.80,SSE,159,5.0,9.0,96,0.00,,,0.02,193,Wunderground v.1.15,2013-09-18 13:33:00,
2013-09-18 08:37:00,67.9,66.7,29.80,SE,146,7.0,9.0,96,0.00,,,0.02,109,Wunderground v.1.15,2013-09-18 13:37:00,
2013-09-18 08:38:00,68.1,66.9,29.80,South,182,6.0,9.0,96,0.00,,,0.02,190,Wunderground v.1.15,2013-09-18 13:38:00,
2013-09-18 08:40:00,68.1,66.9,29.80,SSE,167,3.0,9.0,96,0.00,,,0.02,144,Wunderground v.1.15,2013-09-18 13:40:00,
2013-09-18 08:42:00,68.3,67.1,29.80,SSE,157,4.0,5.0,96,0.00,,,0.02,158,Wunderground v.1.15,2013-09-18 13:42:00,
2013-09-18 08:44:00,68.3,67.1,29.80,SSE,157,4.0,5.0,96,0.00,,,0.02,134,Wunderground v.1.15,2013-09-18 13:44:00,
2013-09-18 08:47:00,68.5,67.3,29.80,SE,144,8.0,9.0,96,0.00,,,0.02,234,Wunderground v.1.15,2013-09-18 13:47:00,
2013-09-18 08:48:00,68.6,67.4,29.80,SSE,159,7.0,9.0,96,0.00,,,0.02,183,Wunderground v.1.15,2013-09-18 13:48:00,
2013-09-18 08:49:00,68.6,67.4,29.80,SSE,158,3.0,9.0,96,0.00,,,0.02,183,Wunderground v.1.15,2013-09-18 13:49:00,
2013-09-18 08:52:00,69.0,67.8,29.80,South,184,3.0,5.0,96,0.00,,,0.02,272,Wunderground v.1.15,2013-09-18 13:52:00,
2013-09-18 08:53:00,69.0,67.5,29.80,South,169,0.0,7.0,95,0.00,,,0.02,218,Wunderground v.1.15,2013-09-18 13:53:00,
2013-09-18 08:54:00,69.0,67.5,29.80,South,171,3.0,7.0,95,0.00,,,0.02,253,Wunderground v.1.15,2013-09-18 13:54:00,
2013-09-18 08:59:00,69.5,68.0,29.80,South,173,4.0,7.0,95,0.00,,,0.02,190,Wunderground v.1.15,2013-09-18 13:59:00,
2013-09-18 09:00:00,69.5,68.0,29.80,South,188,5.0,7.0,95,0.00,,,0.02,332,Wunderground v.1.15,2013-09-18 14:00:00,
2013-09-18 09:03:00,69.8,68.3,29.80,SSW,211,5.0,8.0,95,0.00,,,0.02,383,Wunderground v.1.15,2013-09-18 14:03:00,
2013-09-18 09:05:00,70.0,68.2,29.80,South,182,6.0,8.0,94,0.00,,,0.02,332,Wunderground v.1.15,2013-09-18 14:05:00,
2013-09-18 09:06:00,70.1,68.3,29.79,South,172,2.0,8.0,94,0.00,,,0.02,332,Wunderground v.1.15,2013-09-18 14:06:00,
2013-09-18 09:10:00,70.3,68.2,29.80,SSE,150,4.0,8.0,93,0.00,,,0.02,323,Wunderground v.1.15,2013-09-18 14:10:00,
2013-09-18 09:11:00,70.4,68.3,29.80,South,184,4.0,9.0,93,0.00,,,0.02,329,Wunderground v.1.15,2013-09-18 14:11:00,
2013-09-18 09:15:00,70.8,68.7,29.80,South,175,6.0,12.0,93,0.00,,,0.02,232,Wunderground v.1.15,2013-09-18 14:15:00,
2013-09-18 09:17:00,71.0,68.6,29.80,South,173,4.0,12.0,92,0.00,,,0.02,380,Wunderground v.1.15,2013-09-18 14:17:00,
2013-09-18 09:20:00,71.2,68.8,29.79,South,170,0.0,4.0,92,0.00,,,0.02,287,Wunderground v.1.15,2013-09-18 14:20:00,
2013-09-18 09:23:00,71.5,68.7,29.79,SSE,154,2.0,4.0,91,0.00,,,0.02,353,Wunderground v.1.15,2013-09-18 14:23:00,
2013-09-18 09:25:00,71.6,68.5,29.79,South,185,3.0,9.0,90,0.00,,,0.02,366,Wunderground v.1.15,2013-09-18 14:25:00,
2013-09-18 09:28:00,71.8,69.0,29.79,SSE,160,5.0,9.0,91,0.00,,,0.02,374,Wunderground v.1.15,2013-09-18 14:28:00,
2013-09-18 09:29:00,71.9,68.8,29.79,South,182,3.0,9.0,90,0.00,,,0.02,381,Wunderground v.1.15,2013-09-18 14:29:00,
2013-09-18 09:31:00,72.1,69.0,29.79,SSE,164,2.0,4.0,90,0.00,,,0.02,388,Wunderground v.1.15,2013-09-18 14:31:00,
2013-09-18 09:34:00,72.4,69.3,29.79,SSW,200,7.0,7.0,90,0.00,,,0.02,374,Wunderground v.1.15,2013-09-18 14:34:00,
2013-09-18 09:36:00,72.4,69.0,29.79,South,190,2.0,7.0,89,0.00,,,0.02,399,Wunderground v.1.15,2013-09-18 14:36:00,
2013-09-18 09:40:00,72.7,69.3,29.79,South,178,3.0,4.0,89,0.00,,,0.02,410,Wunderground v.1.15,2013-09-18 14:40:00,
2013-09-18 09:41:00,72.8,69.4,29.79,South,174,3.0,4.0,89,0.00,,,0.02,411,Wunderground v.1.15,2013-09-18 14:41:00,
2013-09-18 09:45:00,73.1,69.7,29.79,South,186,3.0,10.0,89,0.00,,,0.02,401,Wunderground v.1.15,2013-09-18 14:45:00,
2013-09-18 09:46:00,73.2,69.4,29.79,SSW,199,4.0,10.0,88,0.00,,,0.02,420,Wunderground v.1.15,2013-09-18 14:46:00,
2013-09-18 09:51:00,73.5,69.7,29.78,SSE,163,3.0,4.0,88,0.00,,,0.02,439,Wunderground v.1.15,2013-09-18 14:51:00,
2013-09-18 09:52:00,73.5,69.4,29.79,South,177,6.0,8.0,87,0.00,,,0.02,439,Wunderground v.1.15,2013-09-18 14:52:00,
2013-09-18 09:56:00,73.9,69.4,29.79,SSE,167,5.0,8.0,86,0.00,,,0.02,455,Wunderground v.1.15,2013-09-18 14:56:00,
2013-09-18 09:58:00,73.9,69.4,29.79,SSW,192,3.0,8.0,86,0.00,,,0.02,406,Wunderground v.1.15,2013-09-18 14:58:00,
2013-09-18 10:02:00,74.6,70.1,29.78,South,175,1.0,5.0,86,0.00,,,0.02,457,Wunderground v.1.15,2013-09-18 15:02:00,
2013-09-18 10:03:00,74.7,70.2,29.78,SSE,155,4.0,5.0,86,0.00,,,0.02,462,Wunderground v.1.15,2013-09-18 15:03:00,
2013-09-18 10:07:00,75.0,70.2,29.79,SSE,160,5.0,10.0,85,0.00,,,0.02,478,Wunderground v.1.15,2013-09-18 15:07:00,
2013-09-18 10:09:00,75.1,69.9,29.79,SW,215,1.0,10.0,84,0.00,,,0.02,492,Wunderground v.1.15,2013-09-18 15:09:00,
2013-09-18 10:12:00,75.4,70.2,29.79,South,171,1.0,7.0,84,0.00,,,0.02,490,Wunderground v.1.15,2013-09-18 15:12:00,
2013-09-18 10:14:00,75.6,70.4,29.79,SSW,202,5.0,7.0,84,0.00,,,0.02,499,Wunderground v.1.15,2013-09-18 15:14:00,
2013-09-18 10:18:00,75.8,69.9,29.78,SSE,166,4.0,9.0,82,0.00,,,0.02,503,Wunderground v.1.15,2013-09-18 15:18:00,
2013-09-18 10:20:00,75.8,70.3,29.78,South,176,6.0,6.0,83,0.00,,,0.02,512,Wunderground v.1.15,2013-09-18 15:20:00,
2013-09-18 10:23:00,76.1,70.6,29.78,South,188,6.0,8.0,83,0.00,,,0.02,508,Wunderground v.1.15,2013-09-18 15:23:00,
2013-09-18 10:26:00,76.4,70.9,29.78,SSE,167,3.0,8.0,83,0.00,,,0.02,515,Wunderground v.1.15,2013-09-18 15:26:00,
2013-09-18 10:28:00,76.6,70.3,29.78,South,188,5.0,8.0,81,0.00,,,0.02,540,Wunderground v.1.15,2013-09-18 15:28:00,
2013-09-18 10:31:00,76.8,70.5,29.78,SSW,207,3.0,5.0,81,0.00,,,0.02,541,Wunderground v.1.15,2013-09-18 15:31:00,
2013-09-18 10:33:00,77.0,70.7,29.78,South,175,4.0,9.0,81,0.00,,,0.02,541,Wunderground v.1.15,2013-09-18 15:33:00,
2013-09-18 10:37:00,77.3,71.0,29.78,SW,215,10.0,10.0,81,0.00,,,0.02,555,Wunderground v.1.15,2013-09-18 15:37:00,
2013-09-18 10:39:00,77.4,70.7,29.78,South,188,2.0,10.0,80,0.00,,,0.02,559,Wunderground v.1.15,2013-09-18 15:39:00,
2013-09-18 10:43:00,77.9,71.2,29.78,South,182,4.0,9.0,80,0.00,,,0.02,563,Wunderground v.1.15,2013-09-18 15:43:00,
2013-09-18 10:44:00,77.9,71.2,29.78,SSW,196,5.0,9.0,80,0.00,,,0.02,570,Wunderground v.1.15,2013-09-18 15:44:00,
2013-09-18 10:50:00,78.3,71.2,29.78,SSW,210,4.0,4.0,79,0.00,,,0.02,585,Wunderground v.1.15,2013-09-18 15:50:00,
2013-09-18 10:51:00,78.4,71.3,29.78,SSW,212,8.0,8.0,79,0.00,,,0.02,585,Wunderground v.1.15,2013-09-18 15:51:00,
2013-09-18 10:52:00,78.5,71.1,29.78,SSE,165,3.0,8.0,78,0.00,,,0.02,584,Wunderground v.1.15,2013-09-18 15:52:00,
2013-09-18 10:55:00,78.6,71.2,29.77,South,178,7.0,9.0,78,0.00,,,0.02,592,Wunderground v.1.15,2013-09-18 15:55:00,
2013-09-18 10:56:00,78.6,71.2,29.78,SSW,199,3.0,9.0,78,0.00,,,0.02,594,Wunderground v.1.15,2013-09-18 15:56:00,
2013-09-18 11:01:00,79.0,71.6,29.77,SSW,200,7.0,10.0,78,0.00,,,0.02,608,Wunderground v.1.15,2013-09-18 16:01:00,
2013-09-18 11:02:00,79.0,70.8,29.77,SSE,163,2.0,10.0,76,0.00,,,0.02,612,Wunderground v.1.15,2013-09-18 16:02:00,
2013-09-18 11:07:00,79.3,71.5,29.77,SSE,160,6.0,10.0,77,0.00,,,0.02,622,Wunderground v.1.15,2013-09-18 16:07:00,
2013-09-18 11:08:00,79.5,71.7,29.77,South,188,3.0,10.0,77,0.00,,,0.02,626,Wunderground v.1.15,2013-09-18 16:08:00,
2013-09-18 11:09:00,79.6,71.8,29.77,South,178,3.0,10.0,77,0.00,,,0.02,628,Wunderground v.1.15,2013-09-18 16:09:00,
2013-09-18 11:12:00,79.8,71.2,29.77,SSW,211,5.0,8.0,75,0.00,,,0.02,633,Wunderground v.1.15,2013-09-18 16:12:00,
2013-09-18 11:15:00,79.8,71.6,29.77,SSW,197,4.0,8.0,76,0.00,,,0.02,635,Wunderground v.1.15,2013-09-18 16:15:00,
2013-09-18 11:16:00,79.8,71.6,29.77,South,188,5.0,14.0,76,0.00,,,0.02,636,Wunderground v.1.15,2013-09-18 16:16:00,
2013-09-18 11:17:00,80.0,71.4,29.77,South,188,5.0,14.0,75,0.00,,,0.02,643,Wunderground v.1.15,2013-09-18 16:17:00,
2013-09-18 11:20:00,80.0,71.4,29.77,South,182,2.0,5.0,75,0.00,,,0.02,647,Wunderground v.1.15,2013-09-18 16:20:00,
2013-09-18 11:21:00,80.0,71.4,29.76,South,183,3.0,6.0,75,0.00,,,0.02,647,Wunderground v.1.15,2013-09-18 16:21:00,
2013-09-18 11:24:00,80.5,71.8,29.77,SW,215,5.0,7.0,75,0.00,,,0.02,659,Wunderground v.1.15,2013-09-18 16:24:00,
2013-09-18 11:25:00,80.7,72.0,29.76,SSE,153,3.0,7.0,75,0.00,,,0.02,652,Wunderground v.1.15,2013-09-18 16:25:00,
2013-09-18 11:26:00,80.9,72.6,29.76,SSE,156,3.0,7.0,76,0.00,,,0.02,659,Wunderground v.1.15,2013-09-18 16:26:00,
2013-09-18 11:27:00,81.0,71.9,29.77,SSE,153,4.0,7.0,74,0.00,,,0.02,657,Wunderground v.1.15,2013-09-18 16:27:00,
2013-09-18 11:30:00,81.0,71.5,29.76,SSW,200,4.0,4.0,73,0.00,,,0.02,663,Wunderground v.1.15,2013-09-18 16:30:00,
2013-09-18 11:32:00,81.1,72.0,29.76,SW,225,5.0,5.0,74,0.00,,,0.02,671,Wunderground v.1.15,2013-09-18 16:32:00,
2013-09-18 11:37:00,81.5,72.4,29.76,South,177,5.0,7.0,74,0.00,,,0.02,675,Wunderground v.1.15,2013-09-18 16:37:00,
2013-09-18 11:40:00,81.7,72.6,29.76,South,190,6.0,6.0,74,0.00,,,0.02,680,Wunderground v.1.15,2013-09-18 16:40:00,
2013-09-18 11:42:00,81.7,72.2,29.76,South,188,5.0,9.0,73,0.00,,,0.02,682,Wunderground v.1.15,2013-09-18 16:42:00,
2013-09-18 11:47:00,82.0,71.7,29.76,South,189,8.0,10.0,71,0.00,,,0.02,691,Wunderground v.1.15,2013-09-18 16:47:00,
2013-09-18 11:48:00,82.1,72.2,29.76,SSW,194,7.0,10.0,72,0.00,,,0.02,694,Wunderground v.1.15,2013-09-18 16:48:00,
2013-09-18 11:50:00,82.1,71.8,29.76,South,177,5.0,5.0,71,0.00,,,0.02,696,Wunderground v.1.15,2013-09-18 16:50:00,
2013-09-18 11:53:00,82.3,72.4,29.75,SW,223,9.0,9.0,72,0.00,,,0.02,698,Wunderground v.1.15,2013-09-18 16:53:00,
2013-09-18 11:54:00,82.5,72.6,29.75,SE,144,7.0,9.0,72,0.00,,,0.02,701,Wunderground v.1.15,2013-09-18 16:54:00,
2013-09-18 11:55:00,82.7,72.3,29.75,South,191,3.0,9.0,71,0.00,,,0.02,698,Wunderground v.1.15,2013-09-18 16:55:00,
2013-09-18 11:59:00,83.0,71.8,29.75,SW,219,5.0,9.0,69,0.00,,,0.02,703,Wunderground v.1.15,2013-09-18 16:59:00,
2013-09-18 12:00:00,83.0,71.8,29.75,SSW,210,5.0,5.0,69,0.00,,,0.02,698,Wunderground v.1.15,2013-09-18 17:00:00,
2013-09-18 12:01:00,83.0,72.2,29.75,SE,138,5.0,7.0,70,0.00,,,0.02,696,Wunderground v.1.15,2013-09-18 17:01:00,
2013-09-18 12:05:00,83.1,72.3,29.75,SSW,211,3.0,7.0,70,0.00,,,0.02,710,Wunderground v.1.15,2013-09-18 17:05:00,
2013-09-18 12:06:00,83.2,72.4,29.75,South,187,5.0,9.0,70,0.00,,,0.02,715,Wunderground v.1.15,2013-09-18 17:06:00,
2013-09-18 12:08:00,83.6,72.8,29.75,South,182,3.0,9.0,70,0.00,,,0.02,719,Wunderground v.1.15,2013-09-18 17:08:00,
2013-09-18 12:11:00,83.7,72.0,29.75,South,188,9.0,9.0,68,0.00,,,0.02,722,Wunderground v.1.15,2013-09-18 17:11:00,
2013-09-18 12:15:00,83.7,72.0,29.75,SSE,150,2.0,9.0,68,0.00,,,0.02,721,Wunderground v.1.15,2013-09-18 17:15:00,
2013-09-18 12:17:00,83.8,72.5,29.74,SSW,198,5.0,9.0,69,0.00,,,0.02,729,Wunderground v.1.15,2013-09-18 17:17:00,
2013-09-18 12:18:00,83.8,72.1,29.74,SSW,195,7.0,9.0,68,0.00,,,0.02,728,Wunderground v.1.15,2013-09-18 17:18:00,
2013-09-18 12:23:00,83.4,72.6,29.74,South,180,2.0,13.0,70,0.00,,,0.02,721,Wunderground v.1.15,2013-09-18 17:23:00,
2013-09-18 12:28:00,83.9,72.2,29.74,SSE,151,6.0,13.0,68,0.00,,,0.02,737,Wunderground v.1.15,2013-09-18 17:28:00,
2013-09-18 12:29:00,84.1,72.4,29.74,South,175,2.0,13.0,68,0.00,,,0.02,733,Wunderground v.1.15,2013-09-18 17:29:00,
2013-09-18 12:33:00,84.4,72.7,29.73,SSW,196,7.0,9.0,68,0.00,,,0.02,738,Wunderground v.1.15,2013-09-18 17:33:00,
2013-09-18 12:34:00,84.3,72.1,29.73,SW,216,6.0,9.0,67,0.00,,,0.02,737,Wunderground v.1.15,2013-09-18 17:34:00,
2013-09-18 12:37:00,84.5,73.2,29.73,SSW,198,7.0,9.0,69,0.00,,,0.02,742,Wunderground v.1.15,2013-09-18 17:37:00,
2013-09-18 12:38:00,84.6,72.4,29.73,SSE,165,7.0,11.0,67,0.00,,,0.02,740,Wunderground v.1.15,2013-09-18 17:38:00,
2013-09-18 12:39:00,84.5,71.9,29.73,SSW,195,2.0,11.0,66,0.00,,,0.02,742,Wunderground v.1.15,2013-09-18 17:39:00,
2013-09-18 12:44:00,84.4,71.8,29.73,SSE,160,12.0,13.0,66,0.00,,,0.02,745,Wunderground v.1.15,2013-09-18 17:44:00,
2013-09-18 12:45:00,84.4,71.8,29.73,SSE,153,7.0,13.0,66,0.00,,,0.02,751,Wunderground v.1.15,2013-09-18 17:45:00,
2013-09-18 12:47:00,84.5,72.3,29.73,SSW,206,13.0,13.0,67,0.00,,,0.02,754,Wunderground v.1.15,2013-09-18 17:47:00,
2013-09-18 12:50:00,84.5,72.3,29.73,SW,215,6.0,13.0,67,0.00,,,0.02,752,Wunderground v.1.15,2013-09-18 17:50:00,
2013-09-18 12:52:00,84.6,72.4,29.73,SSW,205,8.0,8.0,67,0.00,,,0.02,751,Wunderground v.1.15,2013-09-18 17:52:00,
2013-09-18 12:53:00,84.7,72.1,29.73,SE,138,4.0,8.0,66,0.00,,,0.02,749,Wunderground v.1.15,2013-09-18 17:53:00,
2013-09-18 12:55:00,84.7,72.1,29.73,SSE,159,7.0,8.0,66,0.00,,,0.02,751,Wunderground v.1.15,2013-09-18 17:55:00,
2013-09-18 12:58:00,84.8,72.2,29.72,SE,142,3.0,9.0,66,0.00,,,0.02,751,Wunderground v.1.15,2013-09-18 17:58:00,
2013-09-18 12:59:00,84.8,72.2,29.72,South,170,10.0,10.0,66,0.00,,,0.02,751,Wunderground v.1.15,2013-09-18 17:59:00,
2013-09-18 13:00:00,84.9,71.8,29.72,South,174,2.0,10.0,65,0.00,,,0.02,752,Wunderground v.1.15,2013-09-18 18:00:00,
2013-09-18 13:04:00,85.3,72.6,29.72,SSE,165,9.0,12.0,66,0.00,,,0.02,752,Wunderground v.1.15,2013-09-18 18:04:00,
2013-09-18 13:06:00,85.5,72.4,29.72,SSE,163,7.0,12.0,65,0.00,,,0.02,754,Wunderground v.1.15,2013-09-18 18:06:00,
2013-09-18 13:10:00,85.7,72.6,29.72,South,188,2.0,12.0,65,0.00,,,0.02,754,Wunderground v.1.15,2013-09-18 18:10:00,
2013-09-18 13:11:00,85.9,72.3,29.72,SSE,165,7.0,11.0,64,0.00,,,0.02,747,Wunderground v.1.15,2013-09-18 18:11:00,
2013-09-18 13:15:00,85.9,72.3,29.72,SSE,168,6.0,11.0,64,0.00,,,0.02,754,Wunderground v.1.15,2013-09-18 18:15:00,
2013-09-18 13:17:00,86.0,71.9,29.72,SSW,213,9.0,11.0,63,0.00,,,0.02,751,Wunderground v.1.15,2013-09-18 18:17:00,
2013-09-18 13:20:00,86.1,73.0,29.72,SSW,198,7.0,7.0,65,0.00,,,0.02,751,Wunderground v.1.15,2013-09-18 18:20:00,
2013-09-18 13:21:00,86.1,72.5,29.72,SSW,192,12.0,17.0,64,0.00,,,0.02,751,Wunderground v.1.15,2013-09-18 18:21:00,
2013-09-18 13:22:00,86.1,72.5,29.72,SE,146,8.0,17.0,64,0.00,,,0.02,749,Wunderground v.1.15,2013-09-18 18:22:00,
2013-09-18 13:26:00,86.1,72.5,29.71,SE,145,6.0,17.0,64,0.00,,,0.02,752,Wunderground v.1.15,2013-09-18 18:26:00,
2013-09-18 13:27:00,86.2,72.6,29.71,SSE,167,6.0,17.0,64,0.00,,,0.02,747,Wunderground v.1.15,2013-09-18 18:27:00,
2013-09-18 13:28:00,86.2,72.1,29.71,SSE,155,3.0,17.0,63,0.00,,,0.02,747,Wunderground v.1.15,2013-09-18 18:28:00,
2013-09-18 13:32:00,86.4,72.3,29.70,SSE,163,4.0,12.0,63,0.00,,,0.02,747,Wunderground v.1.15,2013-09-18 18:32:00,
2013-09-18 13:34:00,86.6,72.5,29.70,South,188,3.0,12.0,63,0.00,,,0.02,756,Wunderground v.1.15,2013-09-18 18:34:00,
2013-09-18 13:36:00,86.8,72.7,29.70,SSE,165,8.0,12.0,63,0.00,,,0.02,751,Wunderground v.1.15,2013-09-18 18:36:00,
2013-09-18 13:38:00,86.8,72.7,29.70,SSE,148,6.0,12.0,63,0.00,,,0.02,751,Wunderground v.1.15,2013-09-18 18:38:00,
2013-09-18 13:39:00,86.7,72.6,29.70,SSE,165,8.0,12.0,63,0.00,,,0.02,747,Wunderground v.1.15,2013-09-18 18:39:00,
2013-09-18 13:41:00,86.6,73.0,29.70,SSE,161,8.0,9.0,64,0.00,,,0.02,745,Wunderground v.1.15,2013-09-18 18:41:00,
2013-09-18 13:43:00,86.7,72.6,29.70,SSE,165,7.0,10.0,63,0.00,,,0.02,747,Wunderground v.1.15,2013-09-18 18:43:00,
2013-09-18 13:45:00,86.8,72.7,29.70,SSE,162,5.0,10.0,63,0.00,,,0.02,738,Wunderground v.1.15,2013-09-18 18:45:00,
2013-09-18 13:49:00,87.2,73.1,29.70,SSW,200,8.0,10.0,63,0.00,,,0.02,742,Wunderground v.1.15,2013-09-18 18:49:00,
2013-09-18 13:50:00,87.1,73.0,29.70,South,169,4.0,10.0,63,0.00,,,0.02,744,Wunderground v.1.15,2013-09-18 18:50:00,
2013-09-18 13:51:00,87.2,72.6,29.70,SSE,150,9.0,9.0,62,0.00,,,0.02,738,Wunderground v.1.15,2013-09-18 18:51:00,
2013-09-18 13:55:00,87.1,72.0,29.69,SSE,163,8.0,12.0,61,0.00,,,0.02,737,Wunderground v.1.15,2013-09-18 18:55:00,
2013-09-18 13:56:00,87.1,72.0,29.70,SSE,164,6.0,12.0,61,0.00,,,0.02,747,Wunderground v.1.15,2013-09-18 18:56:00,
2013-09-18 14:00:00,87.2,71.6,29.69,SE,144,7.0,8.0,60,0.00,,,0.02,742,Wunderground v.1.15,2013-09-18 19:00:00,
2013-09-18 14:02:00,87.2,72.1,29.69,SSE,163,7.0,14.0,61,0.00,,,0.02,744,Wunderground v.1.15,2013-09-18 19:02:00,
2013-09-18 14:03:00,87.3,72.7,29.69,SSW,195,9.0,14.0,62,0.00,,,0.02,744,Wunderground v.1.15,2013-09-18 19:03:00,
2013-09-18 14:06:00,87.4,72.3,29.69,SSE,164,12.0,14.0,61,0.00,,,0.02,738,Wunderground v.1.15,2013-09-18 19:06:00,
2013-09-18 14:08:00,87.4,72.3,29.69,SSW,200,4.0,14.0,61,0.00,,,0.02,737,Wunderground v.1.15,2013-09-18 19:08:00,
2013-09-18 14:09:00,87.4,72.3,29.69,South,182,4.0,14.0,61,0.00,,,0.02,737,Wunderground v.1.15,2013-09-18 19:09:00,
2013-09-18 14:11:00,87.8,73.2,29.69,South,175,12.0,12.0,62,0.00,,,0.02,731,Wunderground v.1.15,2013-09-18 19:11:00,
2013-09-18 14:14:00,87.9,72.8,29.69,SSE,167,9.0,12.0,61,0.00,,,0.02,724,Wunderground v.1.15,2013-09-18 19:14:00,
2013-09-18 14:17:00,88.1,72.5,29.69,SSW,198,7.0,12.0,60,0.00,,,0.02,729,Wunderground v.1.15,2013-09-18 19:17:00,
2013-09-18 14:19:00,88.1,71.5,29.69,SSW,196,8.0,12.0,58,0.00,,,0.02,724,Wunderground v.1.15,2013-09-18 19:19:00,
2013-09-18 14:21:00,88.1,71.5,29.69,SSW,213,7.0,11.0,58,0.00,,,0.02,726,Wunderground v.1.15,2013-09-18 19:21:00,
2013-09-18 14:22:00,88.2,72.6,29.69,South,188,7.0,11.0,60,0.00,,,0.02,722,Wunderground v.1.15,2013-09-18 19:22:00,
2013-09-18 14:25:00,88.3,71.6,29.69,SSE,159,8.0,11.0,58,0.00,,,0.02,715,Wunderground v.1.15,2013-09-18 19:25:00,
2013-09-18 14:26:00,88.4,71.7,29.69,SW,222,5.0,11.0,58,0.00,,,0.02,721,Wunderground v.1.15,2013-09-18 19:26:00,
2013-09-18 14:28:00,88.6,72.9,29.68,SSE,157,5.0,11.0,60,0.00,,,0.02,740,Wunderground v.1.15,2013-09-18 19:28:00,
2013-09-18 14:32:00,89.1,72.4,29.68,South,181,4.0,13.0,58,0.00,,,0.02,729,Wunderground v.1.15,2013-09-18 19:32:00,
2013-09-18 14:34:00,89.2,72.0,29.69,SE,146,6.0,13.0,57,0.00,,,0.02,729,Wunderground v.1.15,2013-09-18 19:34:00,
2013-09-18 14:37:00,88.8,72.1,29.68,SW,223,6.0,13.0,58,0.00,,,0.02,735,Wunderground v.1.15,2013-09-18 19:37:00,
2013-09-18 14:39:00,88.8,72.1,29.68,SSW,194,6.0,13.0,58,0.00,,,0.02,721,Wunderground v.1.15,2013-09-18 19:39:00,
2013-09-18 14:42:00,89.1,72.4,29.68,SW,214,5.0,9.0,58,0.00,,,0.02,715,Wunderground v.1.15,2013-09-18 19:42:00,
2013-09-18 14:44:00,89.0,71.8,29.68,SSW,200,6.0,10.0,57,0.00,,,0.02,698,Wunderground v.1.15,2013-09-18 19:44:00,
2013-09-18 14:47:00,89.2,72.0,29.68,South,169,10.0,10.0,57,0.00,,,0.02,708,Wunderground v.1.15,2013-09-18 19:47:00,
2013-09-18 14:48:00,89.2,72.0,29.68,SE,142,9.0,14.0,57,0.00,,,0.02,701,Wunderground v.1.15,2013-09-18 19:48:00,
2013-09-18 14:50:00,88.8,71.6,29.68,South,176,6.0,6.0,57,0.00,,,0.02,701,Wunderground v.1.15,2013-09-18 19:50:00,
2013-09-18 14:53:00,88.7,71.5,29.68,South,178,11.0,16.0,57,0.00,,,0.02,701,Wunderground v.1.15,2013-09-18 19:53:00,
2013-09-18 14:56:00,88.8,71.6,29.68,South,175,5.0,16.0,57,0.00,,,0.02,684,Wunderground v.1.15,2013-09-18 19:56:00,
2013-09-18 14:58:00,89.0,71.8,29.68,SSE,153,4.0,16.0,57,0.00,,,0.02,722,Wunderground v.1.15,2013-09-18 19:58:00,
2013-09-18 14:59:00,89.0,71.8,29.68,SSE,148,6.0,16.0,57,0.00,,,0.02,728,Wunderground v.1.15,2013-09-18 19:59:00,
2013-09-18 15:01:00,89.2,72.5,29.68,SSW,203,4.0,8.0,58,0.00,,,0.02,698,Wunderground v.1.15,2013-09-18 20:01:00,
2013-09-18 15:05:00,89.2,71.5,29.67,SSE,153,5.0,11.0,56,0.00,,,0.02,728,Wunderground v.1.15,2013-09-18 20:05:00,
2013-09-18 15:06:00,89.2,72.0,29.67,SSE,158,7.0,11.0,57,0.00,,,0.02,724,Wunderground v.1.15,2013-09-18 20:06:00,
2013-09-18 15:07:00,89.2,71.5,29.67,SSE,149,6.0,11.0,56,0.00,,,0.02,703,Wunderground v.1.15,2013-09-18 20:07:00,
2013-09-18 15:11:00,89.2,71.5,29.67,SSE,148,12.0,12.0,56,0.00,,,0.02,663,Wunderground v.1.15,2013-09-18 20:11:00,
2013-09-18 15:16:00,89.0,71.8,29.67,SSW,201,7.0,13.0,57,0.00,,,0.02,647,Wunderground v.1.15,2013-09-18 20:16:00,
2013-09-18 15:17:00,89.0,71.8,29.67,SW,221,7.0,13.0,57,0.00,,,0.02,650,Wunderground v.1.15,2013-09-18 20:17:00,
2013-09-18 15:19:00,89.0,71.3,29.67,SW,216,8.0,13.0,56,0.00,,,0.02,649,Wunderground v.1.15,2013-09-18 20:19:00,
2013-09-18 15:22:00,88.9,71.7,29.67,South,189,6.0,12.0,57,0.00,,,0.02,638,Wunderground v.1.15,2013-09-18 20:22:00,
2013-09-18 15:23:00,88.9,71.7,29.67,South,182,7.0,12.0,57,0.00,,,0.02,635,Wunderground v.1.15,2013-09-18 20:23:00,
2013-09-18 15:24:00,88.9,71.2,29.67,SSW,198,8.0,13.0,56,0.00,,,0.02,635,Wunderground v.1.15,2013-09-18 20:24:00,
2013-09-18 15:27:00,88.9,71.2,29.67,South,182,9.0,13.0,56,0.00,,,0.02,628,Wunderground v.1.15,2013-09-18 20:27:00,
2013-09-18 15:28:00,88.9,70.6,29.67,South,171,8.0,13.0,55,0.00,,,0.02,626,Wunderground v.1.15,2013-09-18 20:28:00,
2013-09-18 15:30:00,89.0,70.7,29.67,South,181,5.0,8.0,55,0.00,,,0.02,621,Wunderground v.1.15,2013-09-18 20:30:00,
2013-09-18 15:32:00,89.1,70.8,29.66,SSW,200,7.0,9.0,55,0.00,,,0.02,619,Wunderground v.1.15,2013-09-18 20:32:00,
2013-09-18 15:34:00,89.1,71.4,29.66,SW,233,10.0,10.0,56,0.00,,,0.02,610,Wunderground v.1.15,2013-09-18 20:34:00,
2013-09-18 15:36:00,89.0,71.3,29.66,South,182,12.0,12.0,56,0.00,,,0.02,603,Wunderground v.1.15,2013-09-18 20:36:00,
2013-09-18 15:38:00,89.0,71.3,29.66,SSE,158,9.0,12.0,56,0.00,,,0.02,601,Wunderground v.1.15,2013-09-18 20:38:00,
2013-09-18 15:39:00,89.0,71.3,29.66,South,171,7.0,12.0,56,0.00,,,0.02,592,Wunderground v.1.15,2013-09-18 20:39:00,
2013-09-18 15:44:00,89.1,71.4,29.66,SSW,199,5.0,10.0,56,0.00,,,0.02,587,Wunderground v.1.15,2013-09-18 20:44:00,
2013-09-18 15:45:00,89.2,72.0,29.66,SSE,161,10.0,10.0,57,0.00,,,0.02,580,Wunderground v.1.15,2013-09-18 20:45:00,
2013-09-18 15:46:00,89.2,71.5,29.66,SSE,150,4.0,10.0,56,0.00,,,0.02,584,Wunderground v.1.15,2013-09-18 20:46:00,
2013-09-18 15:49:00,89.3,71.0,29.66,SSW,198,9.0,10.0,55,0.00,,,0.02,587,Wunderground v.1.15,2013-09-18 20:49:00,
2013-09-18 15:50:00,89.2,71.5,29.66,SSW,192,6.0,8.0,56,0.00,,,0.02,577,Wunderground v.1.15,2013-09-18 20:50:00,
2013-09-18 15:52:00,89.0,70.7,29.66,SSE,150,9.0,16.0,55,0.00,,,0.02,568,Wunderground v.1.15,2013-09-18 20:52:00,
2013-09-18 15:54:00,89.0,70.7,29.66,SSE,166,6.0,16.0,55,0.00,,,0.02,570,Wunderground v.1.15,2013-09-18 20:54:00,
2013-09-18 15:55:00,88.9,71.2,29.66,SSE,161,3.0,16.0,56,0.00,,,0.02,566,Wunderground v.1.15,2013-09-18 20:55:00,
2013-09-18 15:59:00,88.9,71.2,29.66,SSE,151,5.0,16.0,56,0.00,,,0.02,554,Wunderground v.1.15,2013-09-18 20:59:00,
2013-09-18 16:01:00,89.1,71.4,29.66,SSE,148,7.0,10.0,56,0.00,,,0.02,547,Wunderground v.1.15,2013-09-18 21:01:00,
2013-09-18 16:04:00,89.0,70.7,29.66,SSE,153,9.0,14.0,55,0.00,,,0.02,543,Wunderground v.1.15,2013-09-18 21:04:00,
2013-09-18 16:05:00,88.9,70.6,29.66,SSE,155,7.0,14.0,55,0.00,,,0.02,540,Wunderground v.1.15,2013-09-18 21:05:00,
2013-09-18 16:08:00,88.7,71.0,29.66,SSE,162,6.0,14.0,56,0.00,,,0.02,527,Wunderground v.1.15,2013-09-18 21:08:00,
2013-09-18 16:11:00,88.9,71.2,29.65,SE,140,10.0,10.0,56,0.00,,,0.02,527,Wunderground v.1.15,2013-09-18 21:11:00,
2013-09-18 16:16:00,88.9,70.6,29.65,SSE,168,6.0,12.0,55,0.00,,,0.02,519,Wunderground v.1.15,2013-09-18 21:16:00,
2013-09-18 16:17:00,89.0,71.3,29.65,South,169,7.0,12.0,56,0.00,,,0.02,513,Wunderground v.1.15,2013-09-18 21:17:00,
2013-09-18 16:21:00,89.1,70.8,29.65,SE,146,13.0,13.0,55,0.00,,,0.02,499,Wunderground v.1.15,2013-09-18 21:21:00,
2013-09-18 16:23:00,89.0,70.2,29.65,SE,146,8.0,13.0,54,0.00,,,0.02,492,Wunderground v.1.15,2013-09-18 21:23:00,
2013-09-18 16:25:00,88.9,70.6,29.65,SSE,160,10.0,13.0,55,0.00,,,0.02,489,Wunderground v.1.15,2013-09-18 21:25:00,
2013-09-18 16:26:00,88.8,70.5,29.65,SE,142,11.0,13.0,55,0.00,,,0.02,483,Wunderground v.1.15,2013-09-18 21:26:00,
2013-09-18 16:28:00,88.8,70.5,29.65,SSW,205,3.0,13.0,55,0.00,,,0.02,480,Wunderground v.1.15,2013-09-18 21:28:00,
2013-09-18 16:33:00,88.7,71.0,29.65,SSE,163,7.0,12.0,56,0.00,,,0.02,469,Wunderground v.1.15,2013-09-18 21:33:00,
2013-09-18 16:38:00,88.6,70.9,29.65,SSE,161,7.0,12.0,56,0.00,,,0.02,452,Wunderground v.1.15,2013-09-18 21:38:00,
2013-09-18 16:39:00,88.6,70.9,29.65,SE,144,7.0,12.0,56,0.00,,,0.02,452,Wunderground v.1.15,2013-09-18 21:39:00,
2013-09-18 16:41:00,88.7,71.5,29.65,SSE,163,5.0,7.0,57,0.00,,,0.02,445,Wunderground v.1.15,2013-09-18 21:41:00,
2013-09-18 16:44:00,88.6,71.4,29.65,SSE,166,6.0,9.0,57,0.00,,,0.02,434,Wunderground v.1.15,2013-09-18 21:44:00,
2013-09-18 16:46:00,88.4,71.2,29.65,South,180,10.0,13.0,57,0.00,,,0.02,434,Wunderground v.1.15,2013-09-18 21:46:00,
2013-09-18 16:49:00,88.2,71.0,29.65,SSE,167,9.0,13.0,57,0.00,,,0.02,425,Wunderground v.1.15,2013-09-18 21:49:00,
2013-09-18 16:50:00,88.2,71.0,29.65,South,183,11.0,11.0,57,0.00,,,0.02,417,Wunderground v.1.15,2013-09-18 21:50:00,
2013-09-18 16:54:00,88.1,70.9,29.65,SSE,166,5.0,11.0,57,0.00,,,0.02,403,Wunderground v.1.15,2013-09-18 21:54:00,
2013-09-18 16:55:00,88.1,70.9,29.65,SSW,198,9.0,11.0,57,0.00,,,0.02,404,Wunderground v.1.15,2013-09-18 21:55:00,
2013-09-18 16:56:00,88.1,70.9,29.65,SSW,210,7.0,11.0,57,0.00,,,0.02,403,Wunderground v.1.15,2013-09-18 21:56:00,
2013-09-18 17:00:00,88.1,71.5,29.65,South,185,10.0,10.0,58,0.00,,,0.02,385,Wunderground v.1.15,2013-09-18 22:00:00,
2013-09-18 17:01:00,88.2,71.0,29.65,SSE,162,13.0,13.0,57,0.00,,,0.02,383,Wunderground v.1.15,2013-09-18 22:01:00,
2013-09-18 17:04:00,88.1,71.5,29.65,South,185,4.0,13.0,58,0.00,,,0.02,373,Wunderground v.1.15,2013-09-18 22:04:00,
2013-09-18 17:05:00,88.1,71.5,29.65,SSE,166,8.0,13.0,58,0.00,,,0.02,367,Wunderground v.1.15,2013-09-18 22:05:00,
2013-09-18 17:08:00,88.1,70.9,29.65,South,171,3.0,13.0,57,0.00,,,0.02,364,Wunderground v.1.15,2013-09-18 22:08:00,
2013-09-18 17:09:00,88.0,70.3,29.65,SSE,161,9.0,13.0,56,0.00,,,0.02,357,Wunderground v.1.15,2013-09-18 22:09:00,
2013-09-18 17:10:00,88.0,70.3,29.65,SSW,209,7.0,8.0,56,0.00,,,0.02,357,Wunderground v.1.15,2013-09-18 22:10:00,
2013-09-18 17:13:00,88.0,69.8,29.65,SSW,193,11.0,12.0,55,0.00,,,0.02,353,Wunderground v.1.15,2013-09-18 22:13:00,
2013-09-18 17:16:00,87.9,69.7,29.65,South,188,3.0,12.0,55,0.00,,,0.02,343,Wunderground v.1.15,2013-09-18 22:16:00,
2013-09-18 17:20:00,88.0,70.9,29.65,South,178,5.0,7.0,57,0.00,,,0.02,329,Wunderground v.1.15,2013-09-18 22:20:00,
2013-09-18 17:21:00,88.0,70.9,29.64,SSE,158,7.0,10.0,57,0.00,,,0.02,322,Wunderground v.1.15,2013-09-18 22:21:00,
2013-09-18 17:25:00,88.0,70.3,29.65,SSW,208,6.0,12.0,56,0.00,,,0.02,309,Wunderground v.1.15,2013-09-18 22:25:00,
2013-09-18 17:27:00,87.9,70.2,29.65,SSE,151,3.0,12.0,56,0.00,,,0.02,297,Wunderground v.1.15,2013-09-18 22:27:00,
2013-09-18 17:31:00,87.7,70.1,29.65,South,182,3.0,9.0,56,0.00,,,0.02,283,Wunderground v.1.15,2013-09-18 22:31:00,
2013-09-18 17:33:00,87.6,70.0,29.65,SW,225,7.0,9.0,56,0.00,,,0.02,274,Wunderground v.1.15,2013-09-18 22:33:00,
2013-09-18 17:36:00,87.4,70.3,29.65,South,170,7.0,9.0,57,0.00,,,0.02,274,Wunderground v.1.15,2013-09-18 22:36:00,
2013-09-18 17:38:00,87.4,69.8,29.65,WSW,240,4.0,9.0,56,0.00,,,0.02,229,Wunderground v.1.15,2013-09-18 22:38:00,
2013-09-18 17:41:00,87.2,69.6,29.65,South,185,7.0,7.0,56,0.00,,,0.02,204,Wunderground v.1.15,2013-09-18 22:41:00,
2013-09-18 17:44:00,87.1,70.5,29.65,SSW,197,11.0,11.0,58,0.00,,,0.02,255,Wunderground v.1.15,2013-09-18 22:44:00,
2013-09-18 17:46:00,87.1,70.0,29.65,SSW,207,9.0,13.0,57,0.00,,,0.02,243,Wunderground v.1.15,2013-09-18 22:46:00,
2013-09-18 17:50:00,87.0,69.9,29.65,SSW,196,5.0,13.0,57,0.00,,,0.02,232,Wunderground v.1.15,2013-09-18 22:50:00,
2013-09-18 17:51:00,87.0,69.9,29.65,South,181,3.0,9.0,57,0.00,,,0.02,220,Wunderground v.1.15,2013-09-18 22:51:00,
2013-09-18 17:55:00,86.8,70.2,29.65,SSW,200,7.0,13.0,58,0.00,,,0.02,200,Wunderground v.1.15,2013-09-18 22:55:00,
2013-09-18 17:57:00,86.7,70.2,29.65,South,183,7.0,13.0,58,0.00,,,0.02,197,Wunderground v.1.15,2013-09-18 22:57:00,
2013-09-18 18:01:00,86.4,69.4,29.65,SSE,165,7.0,9.0,57,0.00,,,0.02,185,Wunderground v.1.15,2013-09-18 23:01:00,
2013-09-18 18:03:00,86.4,69.4,29.65,South,182,4.0,12.0,57,0.00,,,0.02,181,Wunderground v.1.15,2013-09-18 23:03:00,
2013-09-18 18:06:00,86.4,69.4,29.65,South,184,7.0,12.0,57,0.00,,,0.02,169,Wunderground v.1.15,2013-09-18 23:06:00,
2013-09-18 18:08:00,86.3,69.3,29.65,SSW,205,3.0,12.0,57,0.00,,,0.02,160,Wunderground v.1.15,2013-09-18 23:08:00,
2013-09-18 18:13:00,85.8,69.3,29.65,SSW,200,5.0,10.0,58,0.00,,,0.02,54,Wunderground v.1.15,2013-09-18 23:13:00,
2013-09-18 18:16:00,85.5,69.0,29.65,South,175,4.0,10.0,58,0.00,,,0.02,114,Wunderground v.1.15,2013-09-18 23:16:00,
2013-09-18 18:18:00,85.4,69.4,29.65,SSW,205,6.0,10.0,59,0.00,,,0.02,65,Wunderground v.1.15,2013-09-18 23:18:00,
2013-09-18 18:20:00,85.2,69.7,29.65,SSW,196,2.0,5.0,60,0.00,,,0.02,116,Wunderground v.1.15,2013-09-18 23:20:00,
2013-09-18 18:22:00,85.1,69.7,29.65,SSE,165,6.0,6.0,60,0.00,,,0.02,114,Wunderground v.1.15,2013-09-18 23:22:00,
2013-09-18 18:24:00,85.2,69.7,29.65,South,173,2.0,8.0,60,0.00,,,0.02,111,Wunderground v.1.15,2013-09-18 23:24:00,
2013-09-18 18:26:00,85.2,69.7,29.65,South,178,4.0,10.0,60,0.00,,,0.02,93,Wunderground v.1.15,2013-09-18 23:26:00,
2013-09-18 18:29:00,85.0,69.6,29.65,SSW,207,7.0,10.0,60,0.00,,,0.02,98,Wunderground v.1.15,2013-09-18 23:29:00,
2013-09-18 18:31:00,84.9,69.0,29.65,SSE,163,3.0,9.0,59,0.00,,,0.02,98,Wunderground v.1.15,2013-09-18 23:31:00,
2013-09-18 18:33:00,84.9,69.5,29.65,SSW,198,6.0,9.0,60,0.00,,,0.02,97,Wunderground v.1.15,2013-09-18 23:33:00,
2013-09-18 18:36:00,84.9,69.0,29.66,SSW,195,2.0,10.0,59,0.00,,,0.02,84,Wunderground v.1.15,2013-09-18 23:36:00,
2013-09-18 18:41:00,84.7,68.8,29.66,SSW,198,3.0,8.0,59,0.00,,,0.02,67,Wunderground v.1.15,2013-09-18 23:41:00,
2013-09-18 18:42:00,84.7,68.8,29.66,SSW,198,5.0,8.0,59,0.00,,,0.02,60,Wunderground v.1.15,2013-09-18 23:42:00,
2013-09-18 18:46:00,84.3,68.9,29.66,SSW,194,4.0,9.0,60,0.00,,,0.02,40,Wunderground v.1.15,2013-09-18 23:46:00,
2013-09-18 18:48:00,84.2,68.8,29.66,SSW,211,4.0,9.0,60,0.00,,,0.02,39,Wunderground v.1.15,2013-09-18 23:48:00,
2013-09-18 18:51:00,83.7,69.3,29.66,SSW,204,3.0,4.0,62,0.00,,,0.02,33,Wunderground v.1.15,2013-09-18 23:51:00,
2013-09-18 18:53:00,83.4,69.5,29.66,South,185,0.0,4.0,63,0.00,,,0.02,28,Wunderground v.1.15,2013-09-18 23:53:00,
2013-09-18 18:57:00,83.0,69.1,29.66,SSW,213,3.0,5.0,63,0.00,,,0.02,18,Wunderground v.1.15,2013-09-18 23:57:00,
2013-09-18 18:59:00,82.9,69.0,29.66,SSW,194,5.0,8.0,63,0.00,,,0.02,18,Wunderground v.1.15,2013-09-18 23:59:00,
2013-09-18 19:03:00,82.7,69.3,29.66,SSW,197,3.0,7.0,64,0.00,,,0.02,12,Wunderground v.1.15,2013-09-19 00:03:00,
2013-09-18 19:05:00,82.6,69.2,29.66,SW,220,2.0,7.0,64,0.00,,,0.02,11,Wunderground v.1.15,2013-09-19 00:05:00,
2013-09-18 19:08:00,82.3,69.4,29.66,South,182,3.0,7.0,65,0.00,,,0.02,7,Wunderground v.1.15,2013-09-19 00:08:00,
2013-09-18 19:09:00,82.2,69.3,29.66,SSW,197,5.0,7.0,65,0.00,,,0.02,7,Wunderground v.1.15,2013-09-19 00:09:00,
2013-09-18 19:10:00,82.2,69.3,29.66,SSW,205,7.0,7.0,65,0.00,,,0.02,7,Wunderground v.1.15,2013-09-19 00:10:00,
2013-09-18 19:14:00,82.2,69.3,29.66,South,188,2.0,7.0,65,0.00,,,0.02,0,Wunderground v.1.15,2013-09-19 00:14:00,
2013-09-18 19:15:00,82.2,69.3,29.66,SSW,194,7.0,7.0,65,0.00,,,0.02,0,Wunderground v.1.15,2013-09-19 00:15:00,
2013-09-18 19:19:00,82.3,69.4,29.67,SSW,213,2.0,9.0,65,0.00,,,0.02,0,Wunderground v.1.15,2013-09-19 00:19:00,
2013-09-18 19:20:00,82.3,69.4,29.67,South,186,1.0,4.0,65,0.00,,,0.02,0,Wunderground v.1.15,2013-09-19 00:20:00,
2013-09-18 19:21:00,82.3,69.4,29.66,SSW,194,3.0,5.0,65,0.00,,,0.02,0,Wunderground v.1.15,2013-09-19 00:21:00,
2013-09-18 19:25:00,82.3,69.4,29.66,South,185,2.0,6.0,65,0.00,,,0.02,0,Wunderground v.1.15,2013-09-19 00:25:00,
2013-09-18 19:26:00,82.2,69.3,29.66,SSW,195,3.0,6.0,65,0.00,,,0.02,0,Wunderground v.1.15,2013-09-19 00:26:00,
2013-09-18 19:30:00,82.0,69.5,29.66,South,178,2.0,3.0,66,0.00,,,0.02,0,Wunderground v.1.15,2013-09-19 00:30:00,
2013-09-18 19:32:00,81.9,69.4,29.66,South,179,3.0,3.0,66,0.00,,,0.02,0,Wunderground v.1.15,2013-09-19 00:32:00,
2013-09-18 19:35:00,81.7,69.2,29.67,SSW,196,0.0,4.0,66,0.00,,,0.02,0,Wunderground v.1.15,2013-09-19 00:35:00,
2013-09-18 19:36:00,81.6,69.1,29.66,South,175,2.0,4.0,66,0.00,,,0.02,0,Wunderground v.1.15,2013-09-19 00:36:00,
2013-09-18 19:37:00,81.6,69.6,29.66,South,171,2.0,4.0,67,0.00,,,0.02,0,Wunderground v.1.15,2013-09-19 00:37:00,
2013-09-18 19:41:00,81.3,69.3,29.66,South,185,5.0,8.0,67,0.00,,,0.02,0,Wunderground v.1.15,2013-09-19 00:41:00,
2013-09-18 19:42:00,81.3,69.3,29.66,SSE,167,3.0,8.0,67,0.00,,,0.02,0,Wunderground v.1.15,2013-09-19 00:42:00,
2013-09-18 19:43:00,81.3,69.3,29.66,SSE,161,4.0,8.0,67,0.00,,,0.02,0,Wunderground v.1.15,2013-09-19 00:43:00,
2013-09-18 19:46:00,81.3,69.3,29.67,SSE,161,0.0,8.0,67,0.00,,,0.02,0,Wunderground v.1.15,2013-09-19 00:46:00,
2013-09-18 19:48:00,81.3,69.3,29.67,South,178,3.0,8.0,67,0.00,,,0.02,0,Wunderground v.1.15,2013-09-19 00:48:00,
2013-09-18 19:49:00,81.3,69.7,29.67,South,182,0.0,8.0,68,0.00,,,0.02,0,Wunderground v.1.15,2013-09-19 00:49:00,
2013-09-18 19:51:00,81.2,69.6,29.67,South,181,3.0,3.0,68,0.00,,,0.02,0,Wunderground v.1.15,2013-09-19 00:51:00,
2013-09-18 19:54:00,81.1,69.5,29.67,South,170,2.0,5.0,68,0.00,,,0.02,0,Wunderground v.1.15,2013-09-19 00:54:00,
2013-09-18 19:57:00,80.9,69.8,29.67,South,186,0.0,7.0,69,0.00,,,0.02,0,Wunderground v.1.15,2013-09-19 00:57:00,
2013-09-18 19:59:00,80.8,69.7,29.67,SSE,164,3.0,7.0,69,0.00,,,0.02,0,Wunderground v.1.15,2013-09-19 00:59:00,
2013-09-18 20:01:00,80.5,69.8,29.67,SSE,156,3.0,4.0,70,0.00,,,0.02,0,Wunderground v.1.15,2013-09-19 01:01:00,
2013-09-18 20:03:00,80.4,69.7,29.67,SSE,163,0.0,4.0,70,0.00,,,0.02,0,Wunderground v.1.15,2013-09-19 01:03:00,
2013-09-18 20:04:00,80.2,69.5,29.67,SSE,163,2.0,4.0,70,0.00,,,0.02,0,Wunderground v.1.15,2013-09-19 01:04:00,
2013-09-18 20:06:00,79.9,69.7,29.67,SSE,159,3.0,4.0,71,0.00,,,0.02,0,Wunderground v.1.15,2013-09-19 01:06:00,
2013-09-18 20:08:00,79.7,69.5,29.67,SSE,166,2.0,4.0,71,0.00,,,0.02,0,Wunderground v.1.15,2013-09-19 01:08:00,
2013-09-18 20:09:00,79.6,69.8,29.67,SSE,165,0.0,4.0,72,0.00,,,0.02,0,Wunderground v.1.15,2013-09-19 01:09:00,
2013-09-18 20:13:00,79.4,69.6,29.67,SSE,153,2.0,3.0,72,0.00,,,0.02,0,Wunderground v.1.15,2013-09-19 01:13:00,
2013-09-18 20:14:00,79.4,69.6,29.67,SSE,155,3.0,5.0,72,0.00,,,0.02,0,Wunderground v.1.15,2013-09-19 01:14:00,
2013-09-18 20:18:00,79.2,69.4,29.67,SE,136,3.0,5.0,72,0.00,,,0.02,0,Wunderground v.1.15,2013-09-19 01:18:00,
2013-09-18 20:19:00,79.2,69.4,29.67,SSE,158,1.0,5.0,72,0.00,,,0.02,0,Wunderground v.1.15,2013-09-19 01:19:00,
2013-09-18 20:21:00,79.3,69.5,29.67,SE,144,2.0,2.0,72,0.00,,,0.02,0,Wunderground v.1.15,2013-09-19 01:21:00,
2013-09-18 20:23:00,79.4,69.6,29.67,SSE,149,3.0,5.0,72,0.00,,,0.02,0,Wunderground v.1.15,2013-09-19 01:23:00,
2013-09-18 20:26:00,79.5,69.7,29.67,SSE,152,4.0,6.0,72,0.00,,,0.02,0,Wunderground v.1.15,2013-09-19 01:26:00,
2013-09-18 20:29:00,79.6,69.8,29.67,SSE,155,2.0,6.0,72,0.00,,,0.02,0,Wunderground v.1.15,2013-09-19 01:29:00,
2013-09-18 20:31:00,79.7,69.9,29.67,SSE,163,4.0,5.0,72,0.00,,,0.02,0,Wunderground v.1.15,2013-09-19 01:31:00,
2013-09-18 20:32:00,79.7,69.9,29.67,SSE,163,1.0,5.0,72,0.00,,,0.02,0,Wunderground v.1.15,2013-09-19 01:32:00,
2013-09-18 20:34:00,79.7,69.9,29.67,SSE,166,0.0,6.0,72,0.00,,,0.02,0,Wunderground v.1.15,2013-09-19 01:34:00,
2013-09-18 20:37:00,79.7,69.9,29.67,SSE,165,4.0,7.0,72,0.00,,,0.02,0,Wunderground v.1.15,2013-09-19 01:37:00,
2013-09-18 20:40:00,79.6,70.2,29.67,SSE,163,3.0,7.0,73,0.00,,,0.02,0,Wunderground v.1.15,2013-09-19 01:40:00,
2013-09-18 20:42:00,79.6,70.2,29.67,SE,142,2.0,5.0,73,0.00,,,0.02,0,Wunderground v.1.15,2013-09-19 01:42:00,
2013-09-18 20:45:00,79.6,70.2,29.67,SE,132,4.0,5.0,73,0.00,,,0.02,0,Wunderground v.1.15,2013-09-19 01:45:00,
2013-09-18 20:48:00,79.3,69.9,29.67,SE,133,1.0,5.0,73,0.00,,,0.02,0,Wunderground v.1.15,2013-09-19 01:48:00,
2013-09-18 20:50:00,78.9,69.9,29.67,SE,140,1.0,5.0,74,0.00,,,0.02,0,Wunderground v.1.15,2013-09-19 01:50:00,
2013-09-18 20:53:00,78.5,69.9,29.67,SE,137,2.0,2.0,75,0.00,,,0.02,0,Wunderground v.1.15,2013-09-19 01:53:00,
2013-09-18 20:59:00,78.4,69.8,29.67,SSE,163,2.0,6.0,75,0.00,,,0.02,0,Wunderground v.1.15,2013-09-19 01:59:00,
2013-09-18 21:01:00,78.6,70.0,29.67,SSE,156,6.0,6.0,75,0.00,,,0.02,0,Wunderground v.1.15,2013-09-19 02:01:00,
2013-09-18 21:04:00,78.7,70.1,29.67,SSE,158,4.0,7.0,75,0.00,,,0.02,0,Wunderground v.1.15,2013-09-19 02:04:00,
2013-09-18 21:06:00,78.8,70.2,29.67,South,177,6.0,7.0,75,0.00,,,0.02,0,Wunderground v.1.15,2013-09-19 02:06:00,
2013-09-18 21:10:00,78.9,70.3,29.67,SSE,164,3.0,8.0,75,0.00,,,0.02,0,Wunderground v.1.15,2013-09-19 02:10:00,
2013-09-18 21:11:00,79.0,70.4,29.67,South,169,4.0,10.0,75,0.00,,,0.02,0,Wunderground v.1.15,2013-09-19 02:11:00,
2013-09-18 21:15:00,79.3,70.7,29.67,SSE,157,6.0,10.0,75,0.00,,,0.02,0,Wunderground v.1.15,2013-09-19 02:15:00,
2013-09-18 21:16:00,79.2,70.6,29.67,SE,144,6.0,10.0,75,0.00,,,0.02,0,Wunderground v.1.15,2013-09-19 02:16:00,
2013-09-18 21:17:00,79.3,70.7,29.67,SSE,150,4.0,10.0,75,0.00,,,0.02,0,Wunderground v.1.15,2013-09-19 02:17:00,
2013-09-18 21:20:00,79.3,70.7,29.67,South,170,5.0,6.0,75,0.00,,,0.02,0,Wunderground v.1.15,2013-09-19 02:20:00,
2013-09-18 21:22:00,79.3,70.7,29.67,SSE,149,7.0,8.0,75,0.00,,,0.02,0,Wunderground v.1.15,2013-09-19 02:22:00,
2013-09-18 21:26:00,79.4,70.8,29.67,South,182,6.0,11.0,75,0.00,,,0.02,0,Wunderground v.1.15,2013-09-19 02:26:00,
2013-09-18 21:27:00,79.4,70.8,29.66,SSE,157,4.0,11.0,75,0.00,,,0.02,0,Wunderground v.1.15,2013-09-19 02:27:00,
2013-09-18 21:28:00,79.4,70.8,29.67,SSE,155,5.0,11.0,75,0.00,,,0.02,0,Wunderground v.1.15,2013-09-19 02:28:00,
2013-09-18 21:32:00,79.4,70.8,29.66,SE,138,3.0,12.0,75,0.00,,,0.02,0,Wunderground v.1.15,2013-09-19 02:32:00,
2013-09-18 21:33:00,79.4,70.8,29.67,SSE,160,2.0,12.0,75,0.00,,,0.02,0,Wunderground v.1.15,2013-09-19 02:33:00,
2013-09-18 21:34:00,79.3,70.7,29.67,SSE,163,4.0,12.0,75,0.00,,,0.02,0,Wunderground v.1.15,2013-09-19 02:34:00,
2013-09-18 21:37:00,79.3,70.7,29.67,SSE,158,8.0,12.0,75,0.00,,,0.02,0,Wunderground v.1.15,2013-09-19 02:37:00,
2013-09-18 21:39:00,79.2,70.6,29.67,SE,142,7.0,12.0,75,0.00,,,0.02,0,Wunderground v.1.15,2013-09-19 02:39:00,
2013-09-18 21:42:00,79.2,70.6,29.67,SSE,150,1.0,6.0,75,0.00,,,0.02,0,Wunderground v.1.15,2013-09-19 02:42:00,
2013-09-18 21:43:00,79.2,70.6,29.66,SE,143,6.0,6.0,75,0.00,,,0.02,0,Wunderground v.1.15,2013-09-19 02:43:00,
2013-09-18 21:45:00,79.1,70.9,29.67,SE,136,2.0,6.0,76,0.00,,,0.02,0,Wunderground v.1.15,2013-09-19 02:45:00,
2013-09-18 21:48:00,79.0,70.8,29.66,South,175,7.0,8.0,76,0.00,,,0.02,0,Wunderground v.1.15,2013-09-19 02:48:00,
2013-09-18 21:50:00,79.0,70.8,29.67,SSE,166,2.0,4.0,76,0.00,,,0.02,0,Wunderground v.1.15,2013-09-19 02:50:00,
2013-09-18 21:52:00,78.9,70.7,29.66,SSE,153,2.0,5.0,76,0.00,,,0.02,0,Wunderground v.1.15,2013-09-19 02:52:00,
2013-09-18 21:54:00,78.8,70.6,29.67,SSE,150,6.0,6.0,76,0.00,,,0.02,0,Wunderground v.1.15,2013-09-19 02:54:00,
2013-09-18 21:55:00,78.7,70.9,29.67,SE,137,1.0,6.0,77,0.00,,,0.02,0,Wunderground v.1.15,2013-09-19 02:55:00,
2013-09-18 21:58:00,78.6,70.8,29.67,SSE,149,3.0,9.0,77,0.00,,,0.02,0,Wunderground v.1.15,2013-09-19 02:58:00,
2013-09-18 21:59:00,78.6,70.8,29.67,ESE,118,2.0,9.0,77,0.00,,,0.02,0,Wunderground v.1.15,2013-09-19 02:59:00,
2013-09-18 22:00:00,78.4,70.6,29.66,SE,145,4.0,4.0,77,0.00,,,0.02,0,Wunderground v.1.15,2013-09-19 03:00:00,
2013-09-18 22:03:00,78.0,70.6,29.66,SE,128,3.0,4.0,78,0.00,,,0.02,0,Wunderground v.1.15,2013-09-19 03:03:00,
2013-09-18 22:04:00,78.0,70.6,29.66,SE,136,3.0,4.0,78,0.00,,,0.02,0,Wunderground v.1.15,2013-09-19 03:04:00,
2013-09-18 22:06:00,77.9,70.5,29.66,SE,140,6.0,6.0,78,0.00,,,0.02,0,Wunderground v.1.15,2013-09-19 03:06:00,
2013-09-18 22:10:00,77.7,70.7,29.66,ESE,123,4.0,8.0,79,0.00,,,0.02,0,Wunderground v.1.15,2013-09-19 03:10:00,
2013-09-18 22:11:00,77.7,70.7,29.66,SE,139,4.0,5.0,79,0.00,,,0.02,0,Wunderground v.1.15,2013-09-19 03:11:00,
2013-09-18 22:13:00,77.8,70.8,29.66,South,184,4.0,12.0,79,0.00,,,0.02,0,Wunderground v.1.15,2013-09-19 03:13:00,
2013-09-18 22:15:00,77.8,70.8,29.66,SSE,147,3.0,12.0,79,0.00,,,0.02,0,Wunderground v.1.15,2013-09-19 03:15:00,
2013-09-18 22:16:00,77.9,70.9,29.66,SE,146,3.0,12.0,79,0.00,,,0.02,0,Wunderground v.1.15,2013-09-19 03:16:00,
2013-09-18 22:19:00,77.9,70.9,29.67,South,184,6.0,12.0,79,0.00,,,0.02,0,Wunderground v.1.15,2013-09-19 03:19:00,
2013-09-18 22:21:00,77.9,70.9,29.67,SE,128,5.0,6.0,79,0.00,,,0.02,0,Wunderground v.1.15,2013-09-19 03:21:00,
2013-09-18 22:22:00,78.0,71.0,29.66,SE,134,5.0,11.0,79,0.00,,,0.02,0,Wunderground v.1.15,2013-09-19 03:22:00,
2013-09-18 22:24:00,78.0,71.0,29.67,SSE,152,3.0,11.0,79,0.00,,,0.02,0,Wunderground v.1.15,2013-09-19 03:24:00,
2013-09-18 22:28:00,77.9,70.9,29.67,SE,142,3.0,11.0,79,0.00,,,0.02,0,Wunderground v.1.15,2013-09-19 03:28:00,
2013-09-18 22:29:00,77.8,70.8,29.67,South,181,7.0,11.0,79,0.00,,,0.02,0,Wunderground v.1.15,2013-09-19 03:29:00,
2013-09-18 22:33:00,77.6,70.9,29.67,SSE,150,4.0,9.0,80,0.00,,,0.02,0,Wunderground v.1.15,2013-09-19 03:33:00,
2013-09-18 22:34:00,77.5,70.8,29.67,SE,127,1.0,9.0,80,0.00,,,0.02,0,Wunderground v.1.15,2013-09-19 03:34:00,
2013-09-18 22:39:00,77.5,71.2,29.67,SSE,159,10.0,10.0,81,0.00,,,0.02,0,Wunderground v.1.15,2013-09-19 03:39:00,
2013-09-18 22:40:00,77.5,71.2,29.67,SSE,153,9.0,9.0,81,0.00,,,0.02,0,Wunderground v.1.15,2013-09-19 03:40:00,
2013-09-18 22:42:00,77.6,71.3,29.67,SSE,164,5.0,9.0,81,0.00,,,0.02,0,Wunderground v.1.15,2013-09-19 03:42:00,
2013-09-18 22:44:00,77.6,71.3,29.67,SSE,148,3.0,9.0,81,0.00,,,0.02,0,Wunderground v.1.15,2013-09-19 03:44:00,
2013-09-18 22:47:00,77.6,71.3,29.67,SSE,153,2.0,11.0,81,0.00,,,0.02,0,Wunderground v.1.15,2013-09-19 03:47:00,
2013-09-18 22:48:00,77.6,71.3,29.67,SSE,156,3.0,11.0,81,0.00,,,0.02,0,Wunderground v.1.15,2013-09-19 03:48:00,
2013-09-18 22:51:00,77.5,71.2,29.67,South,187,10.0,10.0,81,0.00,,,0.02,0,Wunderground v.1.15,2013-09-19 03:51:00,
2013-09-18 22:53:00,77.6,71.3,29.67,South,171,4.0,10.0,81,0.00,,,0.02,0,Wunderground v.1.15,2013-09-19 03:53:00,
2013-09-18 22:56:00,77.5,71.2,29.67,SSE,159,8.0,11.0,81,0.00,,,0.02,0,Wunderground v.1.15,2013-09-19 03:56:00,
2013-09-18 22:58:00,77.4,71.1,29.67,SE,144,6.0,11.0,81,0.00,,,0.02,0,Wunderground v.1.15,2013-09-19 03:58:00,
2013-09-18 23:01:00,77.4,71.1,29.67,SSE,163,3.0,6.0,81,0.00,,,0.02,0,Wunderground v.1.15,2013-09-19 04:01:00,
2013-09-18 23:05:00,77.4,71.1,29.67,SE,134,7.0,10.0,81,0.00,,,0.02,0,Wunderground v.1.15,2013-09-19 04:05:00,
2013-09-18 23:06:00,77.4,71.1,29.67,SSE,156,5.0,10.0,81,0.00,,,0.02,0,Wunderground v.1.15,2013-09-19 04:06:00,
2013-09-18 23:07:00,77.4,71.1,29.67,SSE,155,6.0,10.0,81,0.00,,,0.02,0,Wunderground v.1.15,2013-09-19 04:07:00,
2013-09-18 23:11:00,77.3,71.0,29.67,SSE,156,6.0,6.0,81,0.00,,,0.02,0,Wunderground v.1.15,2013-09-19 04:11:00,
2013-09-18 23:12:00,77.3,71.4,29.67,SSE,166,3.0,6.0,82,0.00,,,0.02,0,Wunderground v.1.15,2013-09-19 04:12:00,
2013-09-18 23:13:00,77.2,71.3,29.67,SSE,165,7.0,10.0,82,0.00,,,0.02,0,Wunderground v.1.15,2013-09-19 04:13:00,
2013-09-18 23:15:00,77.2,71.3,29.67,SSE,156,5.0,10.0,82,0.00,,,0.02,0,Wunderground v.1.15,2013-09-19 04:15:00,
2013-09-18 23:16:00,77.2,71.3,29.67,South,182,6.0,10.0,82,0.00,,,0.02,0,Wunderground v.1.15,2013-09-19 04:16:00,
2013-09-18 23:17:00,77.1,71.2,29.67,SE,136,12.0,12.0,82,0.00,,,0.02,0,Wunderground v.1.15,2013-09-19 04:17:00,
2013-09-18 23:20:00,77.1,71.2,29.67,SSE,167,4.0,9.0,82,0.00,,,0.02,0,Wunderground v.1.15,2013-09-19 04:20:00,
2013-09-18 23:22:00,77.2,71.3,29.67,SSE,155,5.0,9.0,82,0.00,,,0.02,0,Wunderground v.1.15,2013-09-19 04:22:00,
2013-09-18 23:24:00,77.1,71.2,29.67,SSE,159,7.0,11.0,82,0.00,,,0.02,0,Wunderground v.1.15,2013-09-19 04:24:00,
2013-09-18 23:25:00,77.1,71.2,29.66,SSE,165,6.0,11.0,82,0.00,,,0.02,0,Wunderground v.1.15,2013-09-19 04:25:00,
2013-09-18 23:27:00,77.1,71.2,29.67,SSW,195,4.0,12.0,82,0.00,,,0.02,0,Wunderground v.1.15,2013-09-19 04:27:00,
2013-09-18 23:29:00,77.1,71.2,29.67,SSE,159,7.0,12.0,82,0.00,,,0.02,0,Wunderground v.1.15,2013-09-19 04:29:00,
2013-09-18 23:33:00,77.0,71.1,29.67,SSW,206,2.0,10.0,82,0.00,,,0.02,0,Wunderground v.1.15,2013-09-19 04:33:00,
2013-09-18 23:34:00,76.9,71.0,29.67,South,186,5.0,10.0,82,0.00,,,0.02,0,Wunderground v.1.15,2013-09-19 04:34:00,
2013-09-18 23:36:00,76.9,71.0,29.67,South,178,5.0,10.0,82,0.00,,,0.02,0,Wunderground v.1.15,2013-09-19 04:36:00,
2013-09-18 23:38:00,76.9,71.0,29.67,South,186,3.0,11.0,82,0.00,,,0.02,0,Wunderground v.1.15,2013-09-19 04:38:00,
2013-09-18 23:40:00,76.9,71.0,29.67,South,184,5.0,6.0,82,0.00,,,0.02,0,Wunderground v.1.15,2013-09-19 04:40:00,
2013-09-18 23:44:00,76.7,71.1,29.67,SSW,207,1.0,8.0,83,0.00,,,0.02,0,Wunderground v.1.15,2013-09-19 04:44:00,
2013-09-18 23:45:00,76.7,71.1,29.67,South,189,4.0,8.0,83,0.00,,,0.02,0,Wunderground v.1.15,2013-09-19 04:45:00,
2013-09-18 23:47:00,76.6,71.0,29.67,South,170,4.0,8.0,83,0.00,,,0.02,0,Wunderground v.1.15,2013-09-19 04:47:00,
2013-09-18 23:50:00,76.6,71.0,29.67,South,184,2.0,8.0,83,0.00,,,0.02,0,Wunderground v.1.15,2013-09-19 04:50:00,
2013-09-18 23:55:00,76.4,71.2,29.67,South,184,3.0,10.0,84,0.00,,,0.02,0,Wunderground v.1.15,2013-09-19 04:55:00,
2013-09-18 23:56:00,76.4,71.2,29.67,South,178,2.0,10.0,84,0.00,,,0.02,0,Wunderground v.1.15,2013-09-19 04:56:00,
2013-09-18 23:57:00,76.4,71.2,29.67,SSE,167,7.0,10.0,84,0.00,,,0.00,0,Wunderground v.1.15,2013-09-19 04:57:00,